Wetterdaten: Dienstag, 18.02.2020
Datum Zeit Temp. Aussen Temp. o. S. Temp +5cm Feuchte Auss Luftdruck Regen Sonnenschein Regendauer Solar Windben Empfang
18.02.2020 00:00 7,9 C 7,2 C 6,7 C 86 % 1017,2 hPa 0,0 l/m 0 min 0 min 0 W/m 25,7 km/h (4 Bft) 93,88 %
18.02.2020 00:02 7,9 C 7,2 C 6,7 C 86 % 1017,3 hPa 0,0 l/m 0 min 0 min 0 W/m 22,5 km/h (4 Bft) 95,00 %
18.02.2020 00:04 7,9 C 7,2 C 6,7 C 86 % 1017,3 hPa 0,0 l/m 0 min 0 min 0 W/m 19,3 km/h (3 Bft) 98,15 %
18.02.2020 00:08 7,9 C 7,2 C 6,7 C 86 % 1017,4 hPa 0,0 l/m 0 min 0 min 0 W/m 29,0 km/h (5 Bft) 96,47 %
18.02.2020 00:10 7,8 C 7,2 C 6,7 C 86 % 1017,7 hPa 0,0 l/m 0 min 0 min 0 W/m 32,2 km/h (5 Bft) 97,96 %
18.02.2020 00:12 7,8 C 7,2 C 6,7 C 86 % 1017,5 hPa 0,0 l/m 0 min 0 min 0 W/m 22,5 km/h (4 Bft) 97,83 %
18.02.2020 00:14 7,8 C 7,2 C 6,7 C 86 % 1017,5 hPa 0,0 l/m 0 min 0 min 0 W/m 16,1 km/h (3 Bft) 93,62 %
18.02.2020 00:16 7,8 C 7,2 C 6,7 C 86 % 1017,5 hPa 0,0 l/m 0 min 0 min 0 W/m 16,1 km/h (3 Bft) 95,74 %
18.02.2020 00:18 7,8 C 7,2 C 6,7 C 86 % 1017,5 hPa 0,0 l/m 0 min 0 min 0 W/m 16,1 km/h (3 Bft) 98,15 %
18.02.2020 00:20 7,8 C 7,2 C 6,7 C 86 % 1017,5 hPa 0,0 l/m 0 min 0 min 0 W/m 9,7 km/h (2 Bft) 97,83 %
18.02.2020 00:22 7,8 C 7,2 C 6,7 C 86 % 1017,7 hPa 0,0 l/m 0 min 0 min 0 W/m 25,7 km/h (4 Bft) 97,87 %
18.02.2020 00:24 7,8 C 7,2 C 6,7 C 86 % 1017,6 hPa 0,0 l/m 0 min 0 min 0 W/m 22,5 km/h (4 Bft) 93,62 %
18.02.2020 00:26 7,8 C 7,2 C 6,7 C 86 % 1017,6 hPa 0,0 l/m 0 min 0 min 0 W/m 25,7 km/h (4 Bft) 97,87 %
18.02.2020 00:28 7,8 C 7,2 C 6,7 C 87 % 1017,6 hPa 0,0 l/m 0 min 0 min 0 W/m 29,0 km/h (5 Bft) 100,00 %
18.02.2020 00:30 7,8 C 7,2 C 6,7 C 87 % 1017,7 hPa 0,0 l/m 0 min 0 min 0 W/m 22,5 km/h (4 Bft) 100,00 %
18.02.2020 00:32 7,8 C 7,2 C 6,7 C 87 % 1017,6 hPa 0,0 l/m 0 min 0 min 0 W/m 22,5 km/h (4 Bft) 97,87 %
18.02.2020 00:34 7,8 C 7,2 C 6,7 C 87 % 1017,7 hPa 0,0 l/m 0 min 0 min 0 W/m 22,5 km/h (4 Bft) 95,92 %
18.02.2020 00:36 7,8 C 7,2 C 6,7 C 87 % 1017,7 hPa 0,0 l/m 0 min 0 min 0 W/m 19,3 km/h (3 Bft) 95,74 %
18.02.2020 00:38 7,7 C 7,2 C 6,7 C 86 % 1017,6 hPa 0,0 l/m 0 min 0 min 0 W/m 19,3 km/h (3 Bft) 97,96 %
18.02.2020 00:40 7,7 C 6,7 C 6,7 C 86 % 1017,7 hPa 0,0 l/m 0 min 0 min 0 W/m 19,3 km/h (3 Bft) 97,87 %
18.02.2020 00:42 7,7 C 6,7 C 6,1 C 87 % 1017,7 hPa 0,0 l/m 0 min 0 min 0 W/m 25,7 km/h (4 Bft) 97,87 %
18.02.2020 00:44 7,7 C 6,7 C 6,7 C 87 % 1017,8 hPa 0,0 l/m 0 min 0 min 0 W/m 19,3 km/h (3 Bft) 97,87 %
18.02.2020 00:46 7,7 C 6,7 C 6,1 C 87 % 1017,7 hPa 0,0 l/m 0 min 0 min 0 W/m 16,1 km/h (3 Bft) 93,48 %
18.02.2020 00:48 7,7 C 6,7 C 6,1 C 87 % 1017,8 hPa 0,0 l/m 0 min 0 min 0 W/m 19,3 km/h (3 Bft) 97,87 %
18.02.2020 00:50 7,7 C 6,7 C 6,1 C 87 % 1017,9 hPa 0,0 l/m 0 min 0 min 0 W/m 22,5 km/h (4 Bft) 97,87 %
18.02.2020 00:52 7,7 C 6,7 C 6,1 C 87 % 1017,9 hPa 0,0 l/m 0 min 0 min 0 W/m 35,4 km/h (5 Bft) 97,87 %
18.02.2020 00:54 7,7 C 6,7 C 6,1 C 87 % 1018,1 hPa 0,0 l/m 0 min 0 min 0 W/m 41,8 km/h (6 Bft) 97,87 %
18.02.2020 00:56 7,6 C 6,7 C 6,1 C 87 % 1018,0 hPa 0,0 l/m 0 min 0 min 0 W/m 22,5 km/h (4 Bft) 97,87 %
18.02.2020 00:58 7,6 C 6,7 C 6,1 C 87 % 1018,0 hPa 0,0 l/m 0 min 0 min 0 W/m 25,7 km/h (4 Bft) 97,83 %
18.02.2020 01:00 7,6 C 6,7 C 6,1 C 87 % 1018,0 hPa 0,0 l/m 0 min 0 min 0 W/m 22,5 km/h (4 Bft) 97,87 %
18.02.2020 01:02 7,6 C 6,7 C 6,1 C 87 % 1018,0 hPa 0,0 l/m 0 min 0 min 0 W/m 16,1 km/h (3 Bft) 97,87 %
18.02.2020 01:04 7,6 C 6,7 C 6,1 C 87 % 1018,2 hPa 0,0 l/m 0 min 0 min 0 W/m 38,6 km/h (5 Bft) 97,87 %
18.02.2020 01:06 7,6 C 6,7 C 6,1 C 87 % 1018,1 hPa 0,0 l/m 0 min 0 min 0 W/m 22,5 km/h (4 Bft) 97,87 %
18.02.2020 01:08 7,6 C 7,2 C 6,7 C 87 % 1018,2 hPa 0,0 l/m 0 min 0 min 0 W/m 25,7 km/h (4 Bft) 97,87 %
18.02.2020 01:10 7,6 C 6,7 C 6,1 C 87 % 1018,2 hPa 0,0 l/m 0 min 0 min 0 W/m 19,3 km/h (3 Bft) 95,65 %
18.02.2020 01:12 7,6 C 6,7 C 6,1 C 87 % 1018,3 hPa 0,0 l/m 0 min 0 min 0 W/m 19,3 km/h (3 Bft) 97,87 %
18.02.2020 01:14 7,6 C 7,2 C 6,1 C 87 % 1018,3 hPa 0,0 l/m 0 min 0 min 0 W/m 19,3 km/h (3 Bft) 100,00 %
18.02.2020 01:16 7,6 C 7,2 C 6,7 C 87 % 1018,4 hPa 0,0 l/m 0 min 0 min 0 W/m 32,2 km/h (5 Bft) 100,00 %
18.02.2020 01:18 7,6 C 7,2 C 6,7 C 87 % 1018,4 hPa 0,0 l/m 0 min 0 min 0 W/m 22,5 km/h (4 Bft) 100,00 %
18.02.2020 01:20 7,6 C 7,2 C 6,7 C 87 % 1018,4 hPa 0,0 l/m 0 min 0 min 0 W/m 22,5 km/h (4 Bft) 97,83 %
18.02.2020 01:22 7,6 C 7,2 C 6,7 C 87 % 1018,4 hPa 0,0 l/m 0 min 0 min 0 W/m 16,1 km/h (3 Bft) 100,00 %
18.02.2020 01:24 7,6 C 7,2 C 6,7 C 87 % 1018,4 hPa 0,0 l/m 0 min 0 min 0 W/m 25,7 km/h (4 Bft) 100,00 %
18.02.2020 01:26 7,6 C 7,2 C 6,7 C 87 % 1018,3 hPa 0,0 l/m 0 min 0 min 0 W/m 29,0 km/h (5 Bft) 100,00 %
18.02.2020 01:28 7,6 C 7,2 C 6,7 C 87 % 1018,5 hPa 0,0 l/m 0 min 0 min 0 W/m 19,3 km/h (3 Bft) 100,00 %
18.02.2020 01:30 7,6 C 7,2 C 6,1 C 87 % 1018,4 hPa 0,0 l/m 0 min 0 min 0 W/m 22,5 km/h (4 Bft) 97,87 %
18.02.2020 01:32 7,6 C 7,2 C 6,7 C 87 % 1018,4 hPa 0,0 l/m 0 min 0 min 0 W/m 22,5 km/h (4 Bft) 100,00 %
18.02.2020 01:34 7,6 C 6,7 C 6,1 C 87 % 1018,5 hPa 0,0 l/m 0 min 0 min 0 W/m 16,1 km/h (3 Bft) 100,00 %
18.02.2020 01:36 7,6 C 7,2 C 6,7 C 87 % 1018,6 hPa 0,0 l/m 0 min 0 min 0 W/m 19,3 km/h (3 Bft) 100,00 %
18.02.2020 01:38 7,6 C 6,7 C 6,1 C 87 % 1018,6 hPa 0,0 l/m 0 min 0 min 0 W/m 19,3 km/h (3 Bft) 100,00 %
18.02.2020 01:40 7,6 C 7,2 C 6,7 C 87 % 1018,6 hPa 0,0 l/m 0 min 0 min 0 W/m 35,4 km/h (5 Bft) 97,87 %
18.02.2020 01:42 7,6 C 6,7 C 6,7 C 86 % 1018,6 hPa 0,0 l/m 0 min 0 min 0 W/m 16,1 km/h (3 Bft) 100,00 %
18.02.2020 01:44 7,6 C 6,7 C 6,1 C 86 % 1018,7 hPa 0,0 l/m 0 min 0 min 0 W/m 19,3 km/h (3 Bft) 100,00 %
18.02.2020 01:46 7,6 C 6,7 C 6,7 C 86 % 1018,6 hPa 0,0 l/m 0 min 0 min 0 W/m 22,5 km/h (4 Bft) 100,00 %
18.02.2020 01:48 7,6 C 6,7 C 6,1 C 86 % 1018,6 hPa 0,0 l/m 0 min 0 min 0 W/m 19,3 km/h (3 Bft) 95,74 %
18.02.2020 01:50 7,6 C 6,7 C 6,1 C 86 % 1018,7 hPa 0,0 l/m 0 min 0 min 0 W/m 22,5 km/h (4 Bft) 97,87 %
18.02.2020 01:52 7,6 C 6,7 C 6,7 C 86 % 1018,7 hPa 0,0 l/m 0 min 0 min 0 W/m 25,7 km/h (4 Bft) 97,87 %
18.02.2020 01:54 7,6 C 6,7 C 6,1 C 86 % 1018,7 hPa 0,0 l/m 0 min 2 min 0 W/m 19,3 km/h (3 Bft) 95,74 %
18.02.2020 01:56 7,6 C 6,7 C 6,1 C 86 % 1018,7 hPa 0,0 l/m 0 min 0 min 0 W/m 22,5 km/h (4 Bft) 97,83 %
18.02.2020 01:58 7,6 C 6,7 C 6,1 C 86 % 1018,7 hPa 0,0 l/m 0 min 0 min 0 W/m 22,5 km/h (4 Bft) 97,87 %
18.02.2020 02:00 7,6 C 6,7 C 6,1 C 86 % 1018,7 hPa 0,0 l/m 0 min 0 min 0 W/m 22,5 km/h (4 Bft) 97,87 %
18.02.2020 02:02 7,6 C 6,7 C 6,1 C 86 % 1018,7 hPa 0,0 l/m 0 min 0 min 0 W/m 22,5 km/h (4 Bft) 97,87 %
18.02.2020 02:04 7,6 C 6,7 C 6,1 C 86 % 1018,8 hPa 0,0 l/m 0 min 0 min 0 W/m 22,5 km/h (4 Bft) 95,74 %
18.02.2020 02:06 7,6 C 6,7 C 6,1 C 86 % 1018,7 hPa 0,0 l/m 0 min 0 min 0 W/m 22,5 km/h (4 Bft) 95,74 %
18.02.2020 02:08 7,6 C 6,7 C 6,1 C 86 % 1018,7 hPa 0,0 l/m 0 min 0 min 0 W/m 19,3 km/h (3 Bft) 50,00 %
18.02.2020 02:10 7,6 C 6,7 C 6,1 C 86 % 1018,8 hPa 0,0 l/m 0 min 0 min 0 W/m 32,2 km/h (5 Bft) 97,87 %
18.02.2020 02:12 7,6 C 6,7 C 6,1 C 85 % 1018,7 hPa 0,0 l/m 0 min 0 min 0 W/m 16,1 km/h (3 Bft) 95,74 %
18.02.2020 02:14 7,6 C 6,7 C 6,1 C 85 % 1018,7 hPa 0,0 l/m 0 min 0 min 0 W/m 22,5 km/h (4 Bft) 95,74 %
18.02.2020 02:16 7,5 C 6,7 C 6,1 C 85 % 1018,7 hPa 0,0 l/m 0 min 0 min 0 W/m 29,0 km/h (5 Bft) 95,74 %
18.02.2020 02:18 7,5 C 6,7 C 6,1 C 85 % 1018,7 hPa 0,0 l/m 0 min 0 min 0 W/m 19,3 km/h (3 Bft) 95,74 %
18.02.2020 02:20 7,4 C 6,7 C 6,1 C 85 % 1018,8 hPa 0,0 l/m 0 min 0 min 0 W/m 35,4 km/h (5 Bft) 93,48 %
18.02.2020 02:22 7,4 C 6,7 C 6,1 C 85 % 1018,7 hPa 0,0 l/m 0 min 0 min 0 W/m 32,2 km/h (5 Bft) 93,62 %
18.02.2020 02:24 7,4 C 6,7 C 6,1 C 85 % 1018,7 hPa 0,0 l/m 0 min 0 min 0 W/m 22,5 km/h (4 Bft) 95,74 %
18.02.2020 02:26 7,4 C 6,7 C 6,1 C 85 % 1018,8 hPa 0,0 l/m 0 min 0 min 0 W/m 19,3 km/h (3 Bft) 95,74 %
18.02.2020 02:28 7,4 C 6,7 C 6,1 C 85 % 1018,9 hPa 0,0 l/m 0 min 0 min 0 W/m 29,0 km/h (5 Bft) 95,74 %
18.02.2020 02:30 7,3 C 6,7 C 6,1 C 85 % 1018,9 hPa 0,0 l/m 0 min 0 min 0 W/m 16,1 km/h (3 Bft) 95,74 %
18.02.2020 02:32 7,3 C 6,7 C 6,1 C 85 % 1018,8 hPa 0,0 l/m 0 min 0 min 0 W/m 22,5 km/h (4 Bft) 95,65 %
18.02.2020 02:34 7,3 C 6,7 C 6,1 C 86 % 1018,8 hPa 0,0 l/m 0 min 0 min 0 W/m 19,3 km/h (3 Bft) 97,87 %
18.02.2020 02:36 7,3 C 6,7 C 6,1 C 86 % 1019,0 hPa 0,0 l/m 0 min 0 min 0 W/m 29,0 km/h (5 Bft) 97,87 %
18.02.2020 02:38 7,3 C 6,7 C 6,1 C 86 % 1018,8 hPa 0,0 l/m 0 min 0 min 0 W/m 22,5 km/h (4 Bft) 97,87 %
18.02.2020 02:40 7,3 C 6,7 C 6,1 C 86 % 1018,9 hPa 0,0 l/m 0 min 0 min 0 W/m 12,9 km/h (3 Bft) 97,87 %
18.02.2020 02:42 7,3 C 6,7 C 6,1 C 86 % 1018,9 hPa 0,0 l/m 0 min 0 min 0 W/m 29,0 km/h (5 Bft) 97,87 %
18.02.2020 02:44 7,3 C 6,7 C 6,1 C 86 % 1018,9 hPa 0,0 l/m 0 min 0 min 0 W/m 32,2 km/h (5 Bft) 93,48 %
18.02.2020 02:46 7,3 C 6,7 C 6,1 C 86 % 1018,9 hPa 0,0 l/m 0 min 0 min 0 W/m 25,7 km/h (4 Bft) 97,87 %
18.02.2020 02:48 7,3 C 6,7 C 5,6 C 85 % 1019,1 hPa 0,0 l/m 0 min 2 min 0 W/m 25,7 km/h (4 Bft) 97,87 %
18.02.2020 02:50 7,3 C 6,1 C 5,6 C 86 % 1018,9 hPa 0,0 l/m 0 min 0 min 0 W/m 25,7 km/h (4 Bft) 97,87 %
18.02.2020 02:52 7,3 C 6,1 C 5,6 C 86 % 1019,0 hPa 0,0 l/m 0 min 0 min 0 W/m 25,7 km/h (4 Bft) 95,74 %
18.02.2020 02:54 7,2 C 6,1 C 5,6 C 86 % 1019,2 hPa 0,0 l/m 0 min 0 min 0 W/m 25,7 km/h (4 Bft) 95,65 %
18.02.2020 02:56 7,2 C 6,1 C 5,6 C 86 % 1019,1 hPa 0,0 l/m 0 min 0 min 0 W/m 25,7 km/h (4 Bft) 95,74 %
18.02.2020 02:58 7,2 C 6,7 C 5,6 C 86 % 1019,1 hPa 0,0 l/m 0 min 0 min 0 W/m 22,5 km/h (4 Bft) 97,87 %
18.02.2020 03:00 7,2 C 6,7 C 5,6 C 86 % 1019,0 hPa 0,0 l/m 0 min 0 min 0 W/m 32,2 km/h (5 Bft) 100,00 %
18.02.2020 03:02 7,2 C 6,7 C 6,1 C 86 % 1019,0 hPa 0,0 l/m 0 min 0 min 0 W/m 22,5 km/h (4 Bft) 100,00 %
18.02.2020 03:04 7,2 C 6,7 C 5,6 C 86 % 1019,2 hPa 0,0 l/m 0 min 0 min 0 W/m 22,5 km/h (4 Bft) 100,00 %
18.02.2020 03:06 7,1 C 6,1 C 5,6 C 86 % 1019,0 hPa 0,0 l/m 0 min 0 min 0 W/m 19,3 km/h (3 Bft) 100,00 %
18.02.2020 03:08 7,1 C 6,1 C 5,6 C 86 % 1019,0 hPa 0,0 l/m 0 min 0 min 0 W/m 32,2 km/h (5 Bft) 100,00 %
18.02.2020 03:10 7,1 C 6,1 C 5,6 C 86 % 1019,0 hPa 0,0 l/m 0 min 0 min 0 W/m 38,6 km/h (5 Bft) 100,00 %
18.02.2020 03:12 7,1 C 6,1 C 5,6 C 86 % 1019,0 hPa 0,0 l/m 0 min 0 min 0 W/m 19,3 km/h (3 Bft) 100,00 %
18.02.2020 03:14 7,1 C 6,1 C 5,6 C 86 % 1019,0 hPa 0,0 l/m 0 min 0 min 0 W/m 19,3 km/h (3 Bft) 100,00 %
18.02.2020 03:16 7,1 C 6,1 C 5,6 C 86 % 1019,1 hPa 0,0 l/m 0 min 0 min 0 W/m 25,7 km/h (4 Bft) 100,00 %
18.02.2020 03:18 7,1 C 6,1 C 5,6 C 86 % 1019,1 hPa 0,0 l/m 0 min 0 min 0 W/m 32,2 km/h (5 Bft) 100,00 %
18.02.2020 03:20 7,1 C 6,1 C 5,6 C 86 % 1019,0 hPa 0,0 l/m 0 min 0 min 0 W/m 19,3 km/h (3 Bft) 100,00 %
18.02.2020 03:22 7,1 C 6,1 C 5,6 C 86 % 1019,1 hPa 0,0 l/m 0 min 0 min 0 W/m 29,0 km/h (5 Bft) 100,00 %
18.02.2020 03:24 7,1 C 6,1 C 5,6 C 86 % 1019,2 hPa 0,0 l/m 0 min 0 min 0 W/m 29,0 km/h (5 Bft) 100,00 %
18.02.2020 03:26 7,1 C 6,1 C 5,6 C 86 % 1019,1 hPa 0,0 l/m 0 min 0 min 0 W/m 22,5 km/h (4 Bft) 98,00 %
18.02.2020 03:28 7,1 C 6,1 C 5,6 C 86 % 1019,0 hPa 0,0 l/m 0 min 0 min 0 W/m 32,2 km/h (5 Bft) 100,00 %
18.02.2020 03:30 7,1 C 6,7 C 5,6 C 86 % 1019,1 hPa 0,0 l/m 0 min 0 min 0 W/m 35,4 km/h (5 Bft) 100,00 %
18.02.2020 03:32 7,1 C 6,7 C 6,1 C 86 % 1019,2 hPa 0,0 l/m 0 min 0 min 0 W/m 29,0 km/h (5 Bft) 97,87 %
18.02.2020 03:34 7,1 C 6,1 C 5,6 C 86 % 1019,3 hPa 0,0 l/m 0 min 0 min 0 W/m 25,7 km/h (4 Bft) 80,85 %
18.02.2020 03:36 7,1 C 6,1 C 5,6 C 86 % 1019,2 hPa 0,0 l/m 0 min 0 min 0 W/m 22,5 km/h (4 Bft) 64,71 %
18.02.2020 03:38 7,1 C 6,1 C 5,6 C 86 % 1019,3 hPa 0,0 l/m 0 min 0 min 0 W/m 22,5 km/h (4 Bft) 97,87 %
18.02.2020 03:40 7,1 C 6,7 C 5,6 C 86 % 1019,3 hPa 0,0 l/m 0 min 0 min 0 W/m 16,1 km/h (3 Bft) 97,83 %
18.02.2020 03:42 7,1 C 6,7 C 6,1 C 86 % 1019,2 hPa 0,0 l/m 0 min 0 min 0 W/m 25,7 km/h (4 Bft) 100,00 %
18.02.2020 03:44 7,1 C 6,7 C 6,1 C 86 % 1019,2 hPa 0,0 l/m 0 min 0 min 0 W/m 16,1 km/h (3 Bft) 97,87 %
18.02.2020 03:46 7,1 C 6,7 C 6,1 C 86 % 1019,3 hPa 0,0 l/m 0 min 0 min 0 W/m 38,6 km/h (5 Bft) 97,96 %
18.02.2020 03:48 7,1 C 6,7 C 6,1 C 85 % 1019,2 hPa 0,0 l/m 0 min 0 min 0 W/m 32,2 km/h (5 Bft) 97,87 %
18.02.2020 03:50 7,1 C 6,7 C 6,1 C 85 % 1019,3 hPa 0,0 l/m 0 min 0 min 0 W/m 32,2 km/h (5 Bft) 97,87 %
18.02.2020 03:52 7,1 C 6,7 C 6,1 C 85 % 1019,1 hPa 0,0 l/m 0 min 0 min 0 W/m 29,0 km/h (5 Bft) 97,56 %
18.02.2020 03:54 7,1 C 6,7 C 6,1 C 85 % 1019,2 hPa 0,0 l/m 0 min 0 min 0 W/m 35,4 km/h (5 Bft) 97,87 %
18.02.2020 03:56 7,1 C 6,7 C 5,6 C 85 % 1019,2 hPa 0,0 l/m 0 min 0 min 0 W/m 38,6 km/h (5 Bft) 98,00 %
18.02.2020 03:58 7,1 C 6,1 C 5,6 C 85 % 1019,1 hPa 0,0 l/m 0 min 0 min 0 W/m 32,2 km/h (5 Bft) 97,87 %
18.02.2020 04:00 7,1 C 6,1 C 5,6 C 84 % 1019,1 hPa 0,0 l/m 0 min 0 min 0 W/m 22,5 km/h (4 Bft) 95,74 %
18.02.2020 04:02 7,1 C 6,1 C 5,6 C 84 % 1019,2 hPa 0,0 l/m 0 min 0 min 0 W/m 19,3 km/h (3 Bft) 80,00 %
18.02.2020 04:04 7,1 C 6,1 C 5,6 C 84 % 1019,3 hPa 0,0 l/m 0 min 0 min 0 W/m 25,7 km/h (4 Bft) 97,87 %
18.02.2020 04:06 7,1 C 6,1 C 5,6 C 84 % 1019,2 hPa 0,0 l/m 0 min 0 min 0 W/m 25,7 km/h (4 Bft) 97,87 %
18.02.2020 04:08 7,0 C 6,1 C 5,6 C 84 % 1019,2 hPa 0,0 l/m 0 min 0 min 0 W/m 25,7 km/h (4 Bft) 97,87 %
18.02.2020 04:10 7,0 C 6,1 C 5,6 C 84 % 1019,2 hPa 0,0 l/m 0 min 0 min 0 W/m 29,0 km/h (5 Bft) 97,87 %
18.02.2020 04:12 7,0 C 6,1 C 5,6 C 84 % 1019,2 hPa 0,0 l/m 0 min 0 min 0 W/m 32,2 km/h (5 Bft) 95,74 %
18.02.2020 04:14 7,0 C 6,1 C 5,6 C 84 % 1019,3 hPa 0,0 l/m 0 min 0 min 0 W/m 35,4 km/h (5 Bft) 97,83 %
18.02.2020 04:16 7,0 C 6,1 C 5,6 C 84 % 1019,3 hPa 0,0 l/m 0 min 0 min 0 W/m 19,3 km/h (3 Bft) 97,87 %
18.02.2020 04:18 6,9 C 6,1 C 5,6 C 84 % 1019,4 hPa 0,0 l/m 0 min 0 min 0 W/m 22,5 km/h (4 Bft) 95,74 %
18.02.2020 04:20 6,9 C 6,1 C 5,6 C 84 % 1019,5 hPa 0,0 l/m 0 min 0 min 0 W/m 32,2 km/h (5 Bft) 95,92 %
18.02.2020 04:22 6,9 C 6,1 C 5,6 C 84 % 1019,3 hPa 0,0 l/m 0 min 0 min 0 W/m 25,7 km/h (4 Bft) 97,87 %
18.02.2020 04:24 6,9 C 6,1 C 5,6 C 84 % 1019,3 hPa 0,0 l/m 0 min 0 min 0 W/m 32,2 km/h (5 Bft) 97,62 %
18.02.2020 04:26 6,9 C 6,1 C 5,6 C 84 % 1019,4 hPa 0,0 l/m 0 min 0 min 0 W/m 32,2 km/h (5 Bft) 97,96 %
18.02.2020 04:28 6,9 C 6,1 C 5,6 C 84 % 1019,5 hPa 0,0 l/m 0 min 0 min 0 W/m 19,3 km/h (3 Bft) 95,74 %
18.02.2020 04:30 6,9 C 6,1 C 5,6 C 84 % 1019,5 hPa 0,0 l/m 0 min 0 min 0 W/m 25,7 km/h (4 Bft) 95,92 %
18.02.2020 04:32 6,8 C 6,1 C 5,6 C 84 % 1019,5 hPa 0,0 l/m 0 min 0 min 0 W/m 22,5 km/h (4 Bft) 95,74 %
18.02.2020 04:34 6,8 C 6,1 C 5,6 C 84 % 1019,7 hPa 0,0 l/m 0 min 0 min 0 W/m 22,5 km/h (4 Bft) 95,24 %
18.02.2020 04:36 6,8 C 6,1 C 5,6 C 84 % 1019,7 hPa 0,0 l/m 0 min 0 min 0 W/m 22,5 km/h (4 Bft) 96,00 %
18.02.2020 04:38 6,8 C 6,1 C 5,6 C 85 % 1019,7 hPa 0,0 l/m 0 min 0 min 0 W/m 29,0 km/h (5 Bft) 95,83 %
18.02.2020 04:40 6,8 C 6,1 C 5,6 C 84 % 1019,6 hPa 0,0 l/m 0 min 0 min 0 W/m 25,7 km/h (4 Bft) 93,62 %
18.02.2020 04:42 6,8 C 6,1 C 5,6 C 84 % 1019,6 hPa 0,0 l/m 0 min 0 min 0 W/m 19,3 km/h (3 Bft) 93,62 %
18.02.2020 04:44 6,8 C 6,1 C 5,6 C 84 % 1019,6 hPa 0,0 l/m 0 min 0 min 0 W/m 19,3 km/h (3 Bft) 95,74 %
18.02.2020 04:46 6,8 C 6,1 C 5,0 C 84 % 1019,7 hPa 0,0 l/m 0 min 0 min 0 W/m 29,0 km/h (5 Bft) 93,62 %
18.02.2020 04:48 6,7 C 6,1 C 5,6 C 84 % 1019,8 hPa 0,0 l/m 0 min 0 min 0 W/m 29,0 km/h (5 Bft) 95,74 %
18.02.2020 04:50 6,7 C 6,1 C 5,0 C 84 % 1019,7 hPa 0,0 l/m 0 min 0 min 0 W/m 25,7 km/h (4 Bft) 93,48 %
18.02.2020 04:52 6,7 C 5,6 C 5,0 C 84 % 1019,7 hPa 0,0 l/m 0 min 0 min 0 W/m 29,0 km/h (5 Bft) 95,74 %
18.02.2020 04:54 6,7 C 5,6 C 5,0 C 84 % 1019,9 hPa 0,0 l/m 0 min 0 min 0 W/m 25,7 km/h (4 Bft) 93,62 %
18.02.2020 04:56 6,6 C 5,6 C 5,0 C 84 % 1020,1 hPa 0,0 l/m 0 min 0 min 0 W/m 38,6 km/h (5 Bft) 95,74 %
18.02.2020 04:58 6,6 C 5,6 C 5,0 C 84 % 1019,9 hPa 0,0 l/m 0 min 0 min 0 W/m 19,3 km/h (3 Bft) 93,62 %
18.02.2020 05:00 6,6 C 5,6 C 5,0 C 84 % 1020,0 hPa 0,0 l/m 0 min 0 min 0 W/m 29,0 km/h (5 Bft) 95,74 %
18.02.2020 05:02 6,6 C 5,6 C 5,0 C 84 % 1020,1 hPa 0,0 l/m 0 min 0 min 0 W/m 29,0 km/h (5 Bft) 95,65 %
18.02.2020 05:04 6,6 C 5,6 C 5,0 C 84 % 1020,1 hPa 0,0 l/m 0 min 0 min 0 W/m 19,3 km/h (3 Bft) 93,75 %
18.02.2020 05:06 6,6 C 5,6 C 5,0 C 84 % 1020,2 hPa 0,0 l/m 0 min 0 min 0 W/m 35,4 km/h (5 Bft) 95,74 %
18.02.2020 05:08 6,6 C 5,6 C 5,0 C 84 % 1020,4 hPa 0,0 l/m 0 min 0 min 0 W/m 38,6 km/h (5 Bft) 95,74 %
18.02.2020 05:10 6,5 C 5,6 C 5,0 C 84 % 1020,2 hPa 0,0 l/m 0 min 0 min 0 W/m 19,3 km/h (3 Bft) 95,74 %
18.02.2020 05:12 6,5 C 5,6 C 5,0 C 84 % 1020,1 hPa 0,0 l/m 0 min 0 min 0 W/m 22,5 km/h (4 Bft) 95,74 %
18.02.2020 05:14 6,5 C 5,6 C 5,0 C 84 % 1020,2 hPa 0,0 l/m 0 min 0 min 0 W/m 25,7 km/h (4 Bft) 95,65 %
18.02.2020 05:16 6,5 C 5,6 C 5,0 C 84 % 1020,3 hPa 0,0 l/m 0 min 0 min 0 W/m 25,7 km/h (4 Bft) 93,62 %
18.02.2020 05:18 6,5 C 5,6 C 5,0 C 84 % 1020,5 hPa 0,0 l/m 0 min 0 min 0 W/m 29,0 km/h (5 Bft) 93,62 %
18.02.2020 05:20 6,5 C 5,6 C 5,0 C 84 % 1020,4 hPa 0,0 l/m 0 min 0 min 0 W/m 25,7 km/h (4 Bft) 97,87 %
18.02.2020 05:22 6,5 C 5,6 C 5,0 C 83 % 1020,5 hPa 0,0 l/m 0 min 0 min 0 W/m 32,2 km/h (5 Bft) 97,87 %
18.02.2020 05:24 6,5 C 5,6 C 5,0 C 83 % 1020,5 hPa 0,0 l/m 0 min 0 min 0 W/m 22,5 km/h (4 Bft) 95,74 %
18.02.2020 05:26 6,5 C 5,6 C 5,0 C 83 % 1020,5 hPa 0,0 l/m 0 min 0 min 0 W/m 22,5 km/h (4 Bft) 97,83 %
18.02.2020 05:28 6,5 C 5,6 C 5,0 C 83 % 1020,6 hPa 0,0 l/m 0 min 0 min 0 W/m 22,5 km/h (4 Bft) 97,87 %
18.02.2020 05:30 6,4 C 5,6 C 5,0 C 83 % 1020,6 hPa 0,0 l/m 0 min 0 min 0 W/m 19,3 km/h (3 Bft) 95,74 %
18.02.2020 05:32 6,4 C 5,6 C 5,0 C 83 % 1020,6 hPa 0,0 l/m 0 min 0 min 0 W/m 22,5 km/h (4 Bft) 97,87 %
18.02.2020 05:34 6,4 C 5,6 C 5,0 C 83 % 1020,6 hPa 0,0 l/m 0 min 0 min 0 W/m 22,5 km/h (4 Bft) 97,87 %
18.02.2020 05:36 6,4 C 5,6 C 5,0 C 83 % 1020,6 hPa 0,0 l/m 0 min 0 min 0 W/m 22,5 km/h (4 Bft) 100,00 %
18.02.2020 05:38 6,4 C 5,6 C 5,0 C 83 % 1020,7 hPa 0,0 l/m 0 min 0 min 0 W/m 16,1 km/h (3 Bft) 100,00 %
18.02.2020 05:40 6,3 C 5,6 C 5,0 C 83 % 1020,8 hPa 0,0 l/m 0 min 0 min 0 W/m 19,3 km/h (3 Bft) 100,00 %
18.02.2020 05:42 6,3 C 5,6 C 5,0 C 83 % 1020,8 hPa 0,0 l/m 0 min 0 min 0 W/m 25,7 km/h (4 Bft) 100,00 %
18.02.2020 05:44 6,4 C 5,6 C 5,0 C 83 % 1020,8 hPa 0,0 l/m 0 min 0 min 0 W/m 25,7 km/h (4 Bft) 100,00 %
18.02.2020 05:46 6,3 C 5,6 C 5,0 C 83 % 1020,7 hPa 0,0 l/m 0 min 0 min 0 W/m 29,0 km/h (5 Bft) 100,00 %
18.02.2020 05:48 6,3 C 5,6 C 5,0 C 82 % 1020,9 hPa 0,0 l/m 0 min 0 min 0 W/m 19,3 km/h (3 Bft) 100,00 %
18.02.2020 05:50 6,4 C 5,6 C 5,0 C 83 % 1020,9 hPa 0,0 l/m 0 min 0 min 0 W/m 16,1 km/h (3 Bft) 100,00 %
18.02.2020 05:52 6,4 C 5,6 C 5,0 C 82 % 1020,8 hPa 0,0 l/m 0 min 0 min 0 W/m 19,3 km/h (3 Bft) 100,00 %
18.02.2020 05:54 6,4 C 5,6 C 5,0 C 83 % 1020,9 hPa 0,0 l/m 0 min 0 min 0 W/m 16,1 km/h (3 Bft) 100,00 %
18.02.2020 05:56 6,4 C 5,6 C 5,0 C 83 % 1020,9 hPa 0,0 l/m 0 min 0 min 0 W/m 22,5 km/h (4 Bft) 95,74 %
18.02.2020 05:58 6,4 C 5,6 C 5,0 C 83 % 1020,9 hPa 0,0 l/m 0 min 0 min 0 W/m 19,3 km/h (3 Bft) 100,00 %
18.02.2020 06:00 6,4 C 5,6 C 5,0 C 83 % 1021,0 hPa 0,0 l/m 0 min 0 min 0 W/m 16,1 km/h (3 Bft) 100,00 %
18.02.2020 06:02 6,4 C 5,6 C 5,0 C 83 % 1021,0 hPa 0,0 l/m 0 min 0 min 0 W/m 29,0 km/h (5 Bft) 100,00 %
18.02.2020 06:04 6,4 C 5,6 C 5,0 C 83 % 1020,9 hPa 0,0 l/m 0 min 0 min 0 W/m 19,3 km/h (3 Bft) 100,00 %
18.02.2020 06:08 6,4 C 5,6 C 5,0 C 83 % 1021,0 hPa 0,0 l/m 0 min 0 min 0 W/m 19,3 km/h (3 Bft) 100,00 %
18.02.2020 06:10 6,4 C 5,6 C 5,0 C 83 % 1021,0 hPa 0,0 l/m 0 min 0 min 0 W/m 22,5 km/h (4 Bft) 97,87 %
18.02.2020 06:12 6,4 C 5,6 C 5,0 C 83 % 1021,1 hPa 0,0 l/m 0 min 0 min 0 W/m 35,4 km/h (5 Bft) 100,00 %
18.02.2020 06:14 6,4 C 5,6 C 5,0 C 83 % 1021,0 hPa 0,0 l/m 0 min 0 min 0 W/m 29,0 km/h (5 Bft) 100,00 %
18.02.2020 06:16 6,4 C 5,6 C 5,0 C 83 % 1021,0 hPa 0,0 l/m 0 min 0 min 0 W/m 29,0 km/h (5 Bft) 100,00 %
18.02.2020 06:18 6,4 C 5,6 C 5,0 C 83 % 1021,0 hPa 0,0 l/m 0 min 0 min 0 W/m 25,7 km/h (4 Bft) 97,87 %
18.02.2020 06:20 6,4 C 5,6 C 5,0 C 83 % 1021,0 hPa 0,0 l/m 0 min 0 min 0 W/m 12,9 km/h (3 Bft) 100,00 %
18.02.2020 06:22 6,4 C 5,6 C 5,0 C 83 % 1021,1 hPa 0,0 l/m 0 min 0 min 0 W/m 19,3 km/h (3 Bft) 100,00 %
18.02.2020 06:24 6,4 C 5,6 C 5,0 C 83 % 1021,1 hPa 0,0 l/m 0 min 0 min 0 W/m 12,9 km/h (3 Bft) 100,00 %
18.02.2020 06:26 6,4 C 5,6 C 5,0 C 83 % 1021,0 hPa 0,0 l/m 0 min 0 min 0 W/m 16,1 km/h (3 Bft) 97,87 %
18.02.2020 06:28 6,3 C 5,6 C 5,0 C 83 % 1021,1 hPa 0,0 l/m 0 min 0 min 0 W/m 16,1 km/h (3 Bft) 100,00 %
18.02.2020 06:30 6,3 C 5,6 C 5,0 C 84 % 1021,0 hPa 0,0 l/m 0 min 0 min 0 W/m 16,1 km/h (3 Bft) 100,00 %
18.02.2020 06:32 6,3 C 5,6 C 5,0 C 84 % 1021,1 hPa 0,0 l/m 0 min 0 min 0 W/m 16,1 km/h (3 Bft) 100,00 %
18.02.2020 06:34 6,3 C 5,6 C 5,0 C 84 % 1021,2 hPa 0,0 l/m 0 min 0 min 0 W/m 29,0 km/h (5 Bft) 100,00 %
18.02.2020 06:36 6,3 C 5,6 C 5,0 C 84 % 1021,1 hPa 0,0 l/m 0 min 0 min 0 W/m 19,3 km/h (3 Bft) 100,00 %
18.02.2020 06:38 6,2 C 5,6 C 5,0 C 84 % 1021,2 hPa 0,0 l/m 0 min 0 min 0 W/m 19,3 km/h (3 Bft) 97,87 %
18.02.2020 06:40 6,2 C 5,6 C 5,0 C 84 % 1021,1 hPa 0,0 l/m 0 min 0 min 0 W/m 12,9 km/h (3 Bft) 100,00 %
18.02.2020 06:42 6,2 C 5,6 C 5,0 C 84 % 1021,1 hPa 0,0 l/m 0 min 0 min 0 W/m 16,1 km/h (3 Bft) 100,00 %
18.02.2020 06:44 6,2 C 5,6 C 5,0 C 84 % 1021,2 hPa 0,0 l/m 0 min 0 min 0 W/m 25,7 km/h (4 Bft) 100,00 %
18.02.2020 06:46 6,2 C 5,6 C 5,0 C 84 % 1021,1 hPa 0,0 l/m 0 min 0 min 0 W/m 16,1 km/h (3 Bft) 97,87 %
18.02.2020 06:48 6,2 C 5,6 C 5,0 C 84 % 1021,1 hPa 0,0 l/m 0 min 0 min 0 W/m 22,5 km/h (4 Bft) 97,87 %
18.02.2020 06:50 6,2 C 5,6 C 5,0 C 84 % 1021,1 hPa 0,0 l/m 0 min 0 min 0 W/m 16,1 km/h (3 Bft) 100,00 %
18.02.2020 06:52 6,2 C 5,6 C 5,0 C 84 % 1021,0 hPa 0,0 l/m 0 min 0 min 0 W/m 22,5 km/h (4 Bft) 100,00 %
18.02.2020 06:54 6,2 C 5,6 C 5,0 C 84 % 1021,1 hPa 0,0 l/m 0 min 0 min 0 W/m 19,3 km/h (3 Bft) 100,00 %
18.02.2020 06:56 6,1 C 5,6 C 5,0 C 84 % 1021,2 hPa 0,0 l/m 0 min 0 min 0 W/m 16,1 km/h (3 Bft) 100,00 %
18.02.2020 06:58 6,1 C 5,6 C 5,0 C 85 % 1021,1 hPa 0,0 l/m 0 min 0 min 0 W/m 19,3 km/h (3 Bft) 100,00 %
18.02.2020 07:00 6,1 C 5,6 C 5,0 C 85 % 1021,2 hPa 0,0 l/m 0 min 0 min 0 W/m 16,1 km/h (3 Bft) 100,00 %
18.02.2020 07:02 6,1 C 5,0 C 4,4 C 85 % 1021,2 hPa 0,0 l/m 0 min 0 min 0 W/m 22,5 km/h (4 Bft) 97,87 %
18.02.2020 07:04 6,1 C 5,0 C 4,4 C 85 % 1021,2 hPa 0,0 l/m 0 min 0 min 0 W/m 19,3 km/h (3 Bft) 100,00 %
18.02.2020 07:06 6,1 C 5,0 C 4,4 C 85 % 1021,2 hPa 0,0 l/m 0 min 0 min 0 W/m 12,9 km/h (3 Bft) 100,00 %
18.02.2020 07:08 6,1 C 5,0 C 4,4 C 85 % 1021,3 hPa 0,0 l/m 0 min 0 min 0 W/m 22,5 km/h (4 Bft) 97,83 %
18.02.2020 07:10 6,1 C 5,0 C 4,4 C 85 % 1021,2 hPa 0,0 l/m 0 min 0 min 0 W/m 25,7 km/h (4 Bft) 100,00 %
18.02.2020 07:12 6,0 C 5,0 C 4,4 C 85 % 1021,3 hPa 0,0 l/m 0 min 0 min 0 W/m 12,9 km/h (3 Bft) 100,00 %
18.02.2020 07:14 6,0 C 5,0 C 4,4 C 85 % 1021,3 hPa 0,0 l/m 0 min 0 min 0 W/m 19,3 km/h (3 Bft) 100,00 %
18.02.2020 07:16 6,0 C 5,0 C 4,4 C 85 % 1021,4 hPa 0,0 l/m 0 min 0 min 0 W/m 22,5 km/h (4 Bft) 95,74 %
18.02.2020 07:18 5,9 C 5,0 C 4,4 C 85 % 1021,3 hPa 0,0 l/m 0 min 0 min 0 W/m 19,3 km/h (3 Bft) 97,83 %
18.02.2020 07:20 5,9 C 5,6 C 4,4 C 85 % 1021,3 hPa 0,0 l/m 0 min 0 min 0 W/m 25,7 km/h (4 Bft) 97,87 %
18.02.2020 07:22 5,9 C 5,6 C 5,0 C 85 % 1021,3 hPa 0,0 l/m 0 min 0 min 0 W/m 19,3 km/h (3 Bft) 97,87 %
18.02.2020 07:24 5,9 C 5,6 C 5,0 C 85 % 1021,3 hPa 0,0 l/m 0 min 0 min 0 W/m 22,5 km/h (4 Bft) 95,74 %
18.02.2020 07:26 5,9 C 5,6 C 5,0 C 85 % 1021,4 hPa 0,0 l/m 0 min 0 min 0 W/m 19,3 km/h (3 Bft) 95,74 %
18.02.2020 07:28 5,9 C 5,0 C 4,4 C 85 % 1021,4 hPa 0,0 l/m 0 min 0 min 0 W/m 16,1 km/h (3 Bft) 93,62 %
18.02.2020 07:30 5,9 C 5,0 C 4,4 C 85 % 1021,3 hPa 0,0 l/m 0 min 0 min 0 W/m 16,1 km/h (3 Bft) 93,48 %
18.02.2020 07:32 5,9 C 5,0 C 4,4 C 85 % 1021,3 hPa 0,0 l/m 0 min 0 min 0 W/m 12,9 km/h (3 Bft) 93,62 %
18.02.2020 07:34 5,9 C 5,0 C 4,4 C 85 % 1021,3 hPa 0,0 l/m 0 min 0 min 0 W/m 19,3 km/h (3 Bft) 91,49 %
18.02.2020 07:36 5,9 C 5,0 C 4,4 C 85 % 1021,3 hPa 0,0 l/m 0 min 0 min 0 W/m 9,7 km/h (2 Bft) 93,62 %
18.02.2020 07:38 5,9 C 5,0 C 4,4 C 85 % 1021,4 hPa 0,0 l/m 0 min 0 min 0 W/m 25,7 km/h (4 Bft) 93,62 %
18.02.2020 07:40 5,8 C 5,0 C 4,4 C 85 % 1021,5 hPa 0,0 l/m 0 min 0 min 0 W/m 12,9 km/h (3 Bft) 95,74 %
18.02.2020 07:42 5,8 C 5,0 C 4,4 C 85 % 1021,4 hPa 0,0 l/m 0 min 0 min 0 W/m 19,3 km/h (3 Bft) 91,30 %
18.02.2020 07:44 5,8 C 5,0 C 4,4 C 85 % 1021,5 hPa 0,0 l/m 0 min 0 min 4 W/m 25,7 km/h (4 Bft) 93,62 %
18.02.2020 07:46 5,8 C 5,0 C 4,4 C 85 % 1021,6 hPa 0,0 l/m 0 min 0 min 5 W/m 29,0 km/h (5 Bft) 93,62 %
18.02.2020 07:48 5,8 C 5,0 C 4,4 C 86 % 1021,6 hPa 0,0 l/m 0 min 0 min 5 W/m 16,1 km/h (3 Bft) 95,74 %
18.02.2020 07:50 5,7 C 5,0 C 4,4 C 86 % 1021,6 hPa 0,0 l/m 0 min 0 min 7 W/m 12,9 km/h (3 Bft) 91,49 %
18.02.2020 07:52 5,7 C 5,0 C 4,4 C 86 % 1021,7 hPa 0,0 l/m 0 min 0 min 7 W/m 12,9 km/h (3 Bft) 93,62 %
18.02.2020 07:54 5,7 C 5,0 C 4,4 C 86 % 1021,7 hPa 0,0 l/m 0 min 0 min 7 W/m 12,9 km/h (3 Bft) 93,48 %
18.02.2020 07:56 5,7 C 5,0 C 4,4 C 86 % 1021,7 hPa 0,0 l/m 0 min 0 min 11 W/m 16,1 km/h (3 Bft) 93,62 %
18.02.2020 07:58 5,7 C 5,0 C 4,4 C 86 % 1021,7 hPa 0,0 l/m 0 min 0 min 12 W/m 19,3 km/h (3 Bft) 93,62 %
18.02.2020 08:00 5,7 C 5,0 C 4,4 C 86 % 1021,8 hPa 0,0 l/m 0 min 0 min 15 W/m 12,9 km/h (3 Bft) 93,62 %
18.02.2020 08:02 5,7 C 5,0 C 4,4 C 86 % 1021,8 hPa 0,0 l/m 0 min 0 min 14 W/m 12,9 km/h (3 Bft) 95,74 %
18.02.2020 08:04 5,7 C 5,0 C 4,4 C 86 % 1021,8 hPa 0,0 l/m 0 min 0 min 13 W/m 22,5 km/h (4 Bft) 95,65 %
18.02.2020 08:06 5,7 C 5,0 C 4,4 C 86 % 1021,8 hPa 0,0 l/m 0 min 0 min 17 W/m 16,1 km/h (3 Bft) 97,87 %
18.02.2020 08:08 5,7 C 5,0 C 4,4 C 87 % 1021,8 hPa 0,0 l/m 0 min 0 min 21 W/m 16,1 km/h (3 Bft) 95,74 %
18.02.2020 08:10 5,7 C 5,0 C 4,4 C 87 % 1021,9 hPa 0,0 l/m 0 min 0 min 18 W/m 16,1 km/h (3 Bft) 97,87 %
18.02.2020 08:12 5,7 C 5,0 C 4,4 C 87 % 1021,8 hPa 0,0 l/m 0 min 0 min 19 W/m 25,7 km/h (4 Bft) 95,74 %
18.02.2020 08:14 5,7 C 5,0 C 4,4 C 87 % 1021,9 hPa 0,0 l/m 0 min 0 min 19 W/m 22,5 km/h (4 Bft) 97,87 %
18.02.2020 08:16 5,7 C 5,0 C 4,4 C 87 % 1022,0 hPa 0,0 l/m 0 min 0 min 19 W/m 19,3 km/h (3 Bft) 97,83 %
18.02.2020 08:18 5,7 C 5,0 C 4,4 C 87 % 1022,0 hPa 0,0 l/m 0 min 0 min 21 W/m 19,3 km/h (3 Bft) 97,87 %
18.02.2020 08:20 5,7 C 5,6 C 4,4 C 87 % 1022,0 hPa 0,0 l/m 0 min 0 min 21 W/m 19,3 km/h (3 Bft) 97,87 %
18.02.2020 08:22 5,8 C 5,6 C 4,4 C 87 % 1022,1 hPa 0,0 l/m 0 min 0 min 22 W/m 16,1 km/h (3 Bft) 97,87 %
18.02.2020 08:24 5,8 C 5,6 C 5,0 C 87 % 1022,1 hPa 0,0 l/m 0 min 0 min 29 W/m 12,9 km/h (3 Bft) 97,87 %
18.02.2020 08:26 5,8 C 5,6 C 5,0 C 87 % 1022,1 hPa 0,0 l/m 0 min 0 min 28 W/m 19,3 km/h (3 Bft) 97,87 %
18.02.2020 08:28 5,8 C 5,6 C 5,0 C 87 % 1022,1 hPa 0,0 l/m 0 min 0 min 25 W/m 25,7 km/h (4 Bft) 95,65 %
18.02.2020 08:30 5,8 C 5,6 C 5,0 C 87 % 1022,1 hPa 0,0 l/m 0 min 0 min 30 W/m 25,7 km/h (4 Bft) 95,74 %
18.02.2020 08:32 5,8 C 5,6 C 5,0 C 87 % 1022,1 hPa 0,0 l/m 0 min 0 min 29 W/m 22,5 km/h (4 Bft) 97,87 %
18.02.2020 08:34 5,9 C 5,6 C 5,0 C 87 % 1022,1 hPa 0,0 l/m 0 min 0 min 26 W/m 22,5 km/h (4 Bft) 100,00 %
18.02.2020 08:36 5,9 C 5,6 C 5,0 C 87 % 1022,2 hPa 0,0 l/m 0 min 0 min 28 W/m 22,5 km/h (4 Bft) 97,87 %
18.02.2020 08:38 5,9 C 5,6 C 5,0 C 87 % 1022,2 hPa 0,0 l/m 0 min 0 min 31 W/m 29,0 km/h (5 Bft) 97,87 %
18.02.2020 08:40 5,9 C 5,6 C 5,0 C 87 % 1022,2 hPa 0,0 l/m 0 min 0 min 28 W/m 22,5 km/h (4 Bft) 100,00 %
18.02.2020 08:42 6,0 C 5,6 C 5,0 C 87 % 1022,2 hPa 0,0 l/m 0 min 0 min 31 W/m 22,5 km/h (4 Bft) 100,00 %
18.02.2020 08:44 6,0 C 5,6 C 5,0 C 87 % 1022,3 hPa 0,0 l/m 0 min 0 min 32 W/m 19,3 km/h (3 Bft) 100,00 %
18.02.2020 08:46 6,1 C 5,6 C 5,0 C 87 % 1022,4 hPa 0,0 l/m 0 min 0 min 34 W/m 22,5 km/h (4 Bft) 100,00 %
18.02.2020 08:48 6,1 C 5,6 C 5,0 C 87 % 1022,4 hPa 0,0 l/m 0 min 0 min 35 W/m 12,9 km/h (3 Bft) 100,00 %
18.02.2020 08:50 6,1 C 5,6 C 5,0 C 87 % 1022,3 hPa 0,0 l/m 0 min 0 min 40 W/m 19,3 km/h (3 Bft) 97,87 %
18.02.2020 08:52 6,1 C 5,6 C 5,0 C 87 % 1022,4 hPa 0,0 l/m 0 min 0 min 49 W/m 22,5 km/h (4 Bft) 100,00 %
18.02.2020 08:54 6,1 C 6,1 C 5,0 C 87 % 1022,4 hPa 0,0 l/m 0 min 0 min 60 W/m 22,5 km/h (4 Bft) 100,00 %
18.02.2020 08:56 6,2 C 6,1 C 5,6 C 87 % 1022,4 hPa 0,0 l/m 2 min 0 min 83 W/m 9,7 km/h (2 Bft) 97,87 %
18.02.2020 08:58 6,2 C 6,1 C 5,6 C 87 % 1022,4 hPa 0,0 l/m 0 min 0 min 61 W/m 22,5 km/h (4 Bft) 100,00 %
18.02.2020 09:00 6,2 C 6,1 C 5,6 C 87 % 1022,5 hPa 0,0 l/m 0 min 0 min 50 W/m 29,0 km/h (5 Bft) 100,00 %
18.02.2020 09:02 6,2 C 6,1 C 5,6 C 87 % 1022,5 hPa 0,0 l/m 0 min 0 min 61 W/m 22,5 km/h (4 Bft) 100,00 %
18.02.2020 09:04 6,2 C 6,1 C 5,6 C 87 % 1022,5 hPa 0,0 l/m 0 min 0 min 49 W/m 41,8 km/h (6 Bft) 100,00 %
18.02.2020 09:06 6,3 C 6,1 C 5,6 C 86 % 1022,6 hPa 0,0 l/m 0 min 0 min 47 W/m 25,7 km/h (4 Bft) 100,00 %
18.02.2020 09:08 6,3 C 6,1 C 5,6 C 86 % 1022,6 hPa 0,0 l/m 0 min 0 min 44 W/m 25,7 km/h (4 Bft) 100,00 %
18.02.2020 09:10 6,3 C 6,1 C 5,6 C 86 % 1022,6 hPa 0,0 l/m 0 min 0 min 52 W/m 19,3 km/h (3 Bft) 100,00 %
18.02.2020 09:12 6,3 C 6,1 C 5,6 C 86 % 1022,6 hPa 0,0 l/m 0 min 0 min 53 W/m 16,1 km/h (3 Bft) 100,00 %
18.02.2020 09:14 6,3 C 6,1 C 5,6 C 86 % 1022,6 hPa 0,0 l/m 0 min 0 min 54 W/m 19,3 km/h (3 Bft) 100,00 %
18.02.2020 09:16 6,3 C 6,1 C 5,6 C 86 % 1022,6 hPa 0,0 l/m 0 min 0 min 60 W/m 22,5 km/h (4 Bft) 100,00 %
18.02.2020 09:18 6,4 C 6,1 C 5,6 C 86 % 1022,6 hPa 0,0 l/m 0 min 0 min 59 W/m 19,3 km/h (3 Bft) 97,87 %
18.02.2020 09:20 6,4 C 6,1 C 5,6 C 86 % 1022,6 hPa 0,0 l/m 0 min 0 min 60 W/m 16,1 km/h (3 Bft) 100,00 %
18.02.2020 09:22 6,4 C 6,1 C 5,6 C 86 % 1022,6 hPa 0,0 l/m 0 min 0 min 58 W/m 22,5 km/h (4 Bft) 100,00 %
18.02.2020 09:24 6,4 C 6,1 C 5,6 C 86 % 1022,6 hPa 0,0 l/m 0 min 0 min 61 W/m 16,1 km/h (3 Bft) 100,00 %
18.02.2020 09:26 6,4 C 6,1 C 5,6 C 86 % 1022,6 hPa 0,0 l/m 0 min 0 min 69 W/m 19,3 km/h (3 Bft) 100,00 %
18.02.2020 09:28 6,5 C 6,1 C 5,6 C 86 % 1022,6 hPa 0,0 l/m 0 min 0 min 79 W/m 12,9 km/h (3 Bft) 100,00 %
18.02.2020 09:30 6,5 C 6,1 C 5,6 C 86 % 1022,7 hPa 0,0 l/m 0 min 0 min 61 W/m 25,7 km/h (4 Bft) 100,00 %
18.02.2020 09:32 6,5 C 6,1 C 5,6 C 86 % 1022,8 hPa 0,0 l/m 0 min 0 min 51 W/m 22,5 km/h (4 Bft) 100,00 %
18.02.2020 09:34 6,5 C 6,1 C 5,6 C 86 % 1022,7 hPa 0,0 l/m 0 min 0 min 60 W/m 19,3 km/h (3 Bft) 97,87 %
18.02.2020 09:36 6,5 C 6,1 C 5,6 C 86 % 1022,8 hPa 0,0 l/m 0 min 0 min 57 W/m 22,5 km/h (4 Bft) 100,00 %
18.02.2020 09:38 6,6 C 6,7 C 5,6 C 86 % 1022,7 hPa 0,0 l/m 0 min 0 min 69 W/m 19,3 km/h (3 Bft) 97,83 %
18.02.2020 09:40 6,6 C 6,7 C 5,6 C 86 % 1022,8 hPa 0,0 l/m 0 min 0 min 114 W/m 22,5 km/h (4 Bft) 97,87 %
18.02.2020 09:42 6,6 C 6,7 C 6,1 C 86 % 1022,7 hPa 0,0 l/m 0 min 0 min 110 W/m 19,3 km/h (3 Bft) 100,00 %
18.02.2020 09:44 6,6 C 6,7 C 6,1 C 86 % 1022,7 hPa 0,0 l/m 0 min 0 min 87 W/m 32,2 km/h (5 Bft) 97,87 %
18.02.2020 09:46 6,6 C 6,7 C 5,6 C 85 % 1022,7 hPa 0,0 l/m 0 min 0 min 61 W/m 19,3 km/h (3 Bft) 100,00 %
18.02.2020 09:48 6,7 C 6,7 C 6,1 C 85 % 1022,6 hPa 0,0 l/m 0 min 0 min 84 W/m 16,1 km/h (3 Bft) 100,00 %
18.02.2020 09:50 6,7 C 6,7 C 6,1 C 85 % 1022,8 hPa 0,0 l/m 0 min 0 min 129 W/m 29,0 km/h (5 Bft) 100,00 %
18.02.2020 09:52 6,7 C 6,7 C 6,1 C 85 % 1022,7 hPa 0,0 l/m 0 min 0 min 131 W/m 22,5 km/h (4 Bft) 97,87 %
18.02.2020 09:54 6,7 C 6,7 C 6,1 C 85 % 1022,7 hPa 0,0 l/m 0 min 0 min 107 W/m 16,1 km/h (3 Bft) 97,87 %
18.02.2020 09:56 6,8 C 6,7 C 6,1 C 85 % 1022,8 hPa 0,0 l/m 0 min 0 min 82 W/m 22,5 km/h (4 Bft) 97,87 %
18.02.2020 09:58 6,8 C 6,7 C 6,1 C 85 % 1022,8 hPa 0,0 l/m 0 min 0 min 122 W/m 25,7 km/h (4 Bft) 97,87 %
18.02.2020 10:00 6,8 C 6,7 C 6,1 C 85 % 1022,8 hPa 0,0 l/m 2 min 0 min 151 W/m 25,7 km/h (4 Bft) 93,48 %
18.02.2020 10:02 6,8 C 6,7 C 6,1 C 85 % 1022,9 hPa 0,0 l/m 0 min 0 min 114 W/m 32,2 km/h (5 Bft) 95,74 %
18.02.2020 10:04 6,8 C 6,7 C 6,1 C 85 % 1022,9 hPa 0,0 l/m 0 min 0 min 99 W/m 35,4 km/h (5 Bft) 95,74 %
18.02.2020 10:06 6,8 C 6,7 C 6,1 C 85 % 1022,9 hPa 0,0 l/m 0 min 0 min 84 W/m 25,7 km/h (4 Bft) 95,74 %
18.02.2020 10:08 6,8 C 6,7 C 6,1 C 85 % 1022,9 hPa 0,0 l/m 0 min 0 min 103 W/m 12,9 km/h (3 Bft) 95,74 %
18.02.2020 10:10 6,8 C 6,7 C 6,1 C 85 % 1022,9 hPa 0,0 l/m 0 min 0 min 96 W/m 35,4 km/h (5 Bft) 93,62 %
18.02.2020 10:12 6,9 C 6,7 C 6,1 C 84 % 1022,8 hPa 0,0 l/m 0 min 0 min 93 W/m 29,0 km/h (5 Bft) 95,65 %
18.02.2020 10:14 6,9 C 6,7 C 6,1 C 84 % 1023,0 hPa 0,0 l/m 0 min 0 min 85 W/m 22,5 km/h (4 Bft) 95,74 %
18.02.2020 10:16 6,9 C 6,7 C 6,1 C 84 % 1023,0 hPa 0,0 l/m 0 min 0 min 101 W/m 25,7 km/h (4 Bft) 95,74 %
18.02.2020 10:18 6,9 C 6,7 C 6,1 C 84 % 1023,0 hPa 0,0 l/m 0 min 0 min 105 W/m 25,7 km/h (4 Bft) 95,74 %
18.02.2020 10:20 6,9 C 7,2 C 6,1 C 84 % 1023,0 hPa 0,0 l/m 0 min 0 min 130 W/m 22,5 km/h (4 Bft) 95,74 %
18.02.2020 10:22 6,9 C 7,2 C 6,1 C 84 % 1022,9 hPa 0,0 l/m 0 min 0 min 125 W/m 19,3 km/h (3 Bft) 95,74 %
18.02.2020 10:24 6,9 C 8,3 C 6,1 C 84 % 1023,0 hPa 0,0 l/m 0 min 0 min 105 W/m 19,3 km/h (3 Bft) 94,44 %
18.02.2020 10:26 7,0 C 8,9 C 6,7 C 84 % 1023,0 hPa 0,0 l/m 2 min 0 min 171 W/m 16,1 km/h (3 Bft) 98,25 %
18.02.2020 10:28 7,1 C 8,3 C 6,7 C 84 % 1022,9 hPa 0,0 l/m 2 min 0 min 176 W/m 35,4 km/h (5 Bft) 91,49 %
18.02.2020 10:30 7,1 C 8,3 C 6,7 C 84 % 1023,0 hPa 0,0 l/m 2 min 0 min 196 W/m 38,6 km/h (5 Bft) 95,74 %
18.02.2020 10:32 7,1 C 9,4 C 7,2 C 84 % 1023,0 hPa 0,0 l/m 2 min 0 min 304 W/m 25,7 km/h (4 Bft) 95,74 %
18.02.2020 10:34 7,2 C 10,6 C 7,2 C 84 % 1023,0 hPa 0,0 l/m 2 min 0 min 479 W/m 12,9 km/h (3 Bft) 95,74 %
18.02.2020 10:36 7,4 C 10,6 C 7,2 C 83 % 1022,9 hPa 0,0 l/m 2 min 0 min 506 W/m 35,4 km/h (5 Bft) 93,48 %
18.02.2020 10:38 7,4 C 10,0 C 7,2 C 83 % 1023,0 hPa 0,0 l/m 2 min 0 min 324 W/m 22,5 km/h (4 Bft) 97,87 %
18.02.2020 10:40 7,6 C 9,4 C 7,2 C 82 % 1023,0 hPa 0,0 l/m 0 min 0 min 180 W/m 25,7 km/h (4 Bft) 93,62 %
18.02.2020 10:42 7,6 C 8,3 C 7,2 C 82 % 1023,1 hPa 0,0 l/m 0 min 0 min 151 W/m 22,5 km/h (4 Bft) 97,87 %
18.02.2020 10:44 7,6 C 8,9 C 7,2 C 82 % 1023,0 hPa 0,0 l/m 0 min 0 min 162 W/m 19,3 km/h (3 Bft) 97,87 %
18.02.2020 10:46 7,7 C 10,0 C 7,2 C 82 % 1023,1 hPa 0,0 l/m 2 min 0 min 256 W/m 22,5 km/h (4 Bft) 97,87 %
18.02.2020 10:48 7,7 C 11,1 C 7,8 C 82 % 1023,3 hPa 0,0 l/m 2 min 0 min 396 W/m 22,5 km/h (4 Bft) 93,48 %
18.02.2020 10:50 7,8 C 9,4 C 7,2 C 82 % 1023,1 hPa 0,0 l/m 2 min 0 min 356 W/m 35,4 km/h (5 Bft) 97,87 %
18.02.2020 10:52 7,8 C 8,3 C 7,2 C 81 % 1023,2 hPa 0,0 l/m 2 min 0 min 193 W/m 29,0 km/h (5 Bft) 93,62 %
18.02.2020 10:54 7,8 C 7,8 C 7,2 C 81 % 1023,1 hPa 0,0 l/m 0 min 0 min 123 W/m 22,5 km/h (4 Bft) 95,74 %
18.02.2020 10:56 7,8 C 7,2 C 6,7 C 81 % 1023,1 hPa 0,0 l/m 0 min 0 min 97 W/m 29,0 km/h (5 Bft) 93,62 %
18.02.2020 10:58 7,7 C 7,2 C 6,7 C 81 % 1023,0 hPa 0,0 l/m 0 min 0 min 90 W/m 19,3 km/h (3 Bft) 95,65 %
18.02.2020 11:00 7,7 C 7,2 C 6,7 C 81 % 1023,0 hPa 0,0 l/m 0 min 0 min 97 W/m 29,0 km/h (5 Bft) 93,62 %
18.02.2020 11:02 7,6 C 7,2 C 6,7 C 81 % 1022,9 hPa 0,0 l/m 0 min 0 min 143 W/m 22,5 km/h (4 Bft) 97,87 %
18.02.2020 11:04 7,6 C 7,2 C 6,7 C 81 % 1023,0 hPa 0,0 l/m 0 min 0 min 134 W/m 16,1 km/h (3 Bft) 97,87 %
18.02.2020 11:06 7,6 C 7,2 C 6,7 C 82 % 1023,0 hPa 0,0 l/m 0 min 0 min 127 W/m 16,1 km/h (3 Bft) 95,74 %
18.02.2020 11:08 7,6 C 7,2 C 6,7 C 82 % 1023,0 hPa 0,0 l/m 0 min 0 min 120 W/m 25,7 km/h (4 Bft) 97,87 %
18.02.2020 11:10 7,6 C 7,8 C 6,7 C 82 % 1023,0 hPa 0,0 l/m 0 min 0 min 142 W/m 12,9 km/h (3 Bft) 97,83 %
18.02.2020 11:12 7,6 C 7,8 C 7,2 C 82 % 1023,0 hPa 0,0 l/m 0 min 0 min 165 W/m 29,0 km/h (5 Bft) 97,87 %
18.02.2020 11:14 7,6 C 7,8 C 6,7 C 82 % 1023,0 hPa 0,0 l/m 0 min 0 min 187 W/m 32,2 km/h (5 Bft) 100,00 %
18.02.2020 11:16 7,6 C 7,8 C 7,2 C 82 % 1023,0 hPa 0,0 l/m 0 min 0 min 169 W/m 25,7 km/h (4 Bft) 97,87 %
18.02.2020 11:18 7,6 C 7,8 C 7,2 C 82 % 1022,9 hPa 0,0 l/m 0 min 0 min 147 W/m 22,5 km/h (4 Bft) 95,74 %
18.02.2020 11:20 7,6 C 7,2 C 6,7 C 82 % 1023,0 hPa 0,0 l/m 0 min 0 min 112 W/m 25,7 km/h (4 Bft) 97,87 %
18.02.2020 11:22 7,5 C 7,2 C 6,7 C 82 % 1023,0 hPa 0,0 l/m 0 min 0 min 88 W/m 29,0 km/h (5 Bft) 97,83 %
18.02.2020 11:24 7,4 C 7,2 C 6,7 C 82 % 1023,0 hPa 0,0 l/m 0 min 0 min 72 W/m 32,2 km/h (5 Bft) 97,87 %
18.02.2020 11:26 7,4 C 7,2 C 6,7 C 82 % 1022,9 hPa 0,0 l/m 0 min 0 min 109 W/m 16,1 km/h (3 Bft) 97,87 %
18.02.2020 11:28 7,4 C 7,8 C 6,7 C 82 % 1022,8 hPa 0,0 l/m 0 min 0 min 158 W/m 12,9 km/h (3 Bft) 97,87 %
18.02.2020 11:30 7,4 C 9,4 C 6,7 C 82 % 1022,9 hPa 0,0 l/m 0 min 0 min 162 W/m 32,2 km/h (5 Bft) 97,87 %
18.02.2020 11:32 7,5 C 10,0 C 7,2 C 82 % 1022,8 hPa 0,0 l/m 2 min 0 min 368 W/m 32,2 km/h (5 Bft) 97,87 %
18.02.2020 11:34 7,6 C 8,9 C 7,2 C 82 % 1022,9 hPa 0,0 l/m 2 min 0 min 492 W/m 45,1 km/h (6 Bft) 95,65 %
18.02.2020 11:36 7,6 C 8,9 C 7,2 C 82 % 1022,8 hPa 0,0 l/m 0 min 0 min 167 W/m 22,5 km/h (4 Bft) 97,87 %
18.02.2020 11:38 7,7 C 8,9 C 7,2 C 82 % 1022,9 hPa 0,0 l/m 0 min 0 min 167 W/m 25,7 km/h (4 Bft) 97,87 %
18.02.2020 11:40 7,7 C 8,9 C 7,2 C 82 % 1023,0 hPa 0,0 l/m 2 min 0 min 238 W/m 29,0 km/h (5 Bft) 97,87 %
18.02.2020 11:42 7,7 C 9,4 C 7,2 C 81 % 1022,8 hPa 0,0 l/m 2 min 0 min 274 W/m 41,8 km/h (6 Bft) 97,87 %
18.02.2020 11:44 7,8 C 10,6 C 7,8 C 81 % 1022,8 hPa 0,0 l/m 2 min 0 min 368 W/m 41,8 km/h (6 Bft) 100,00 %
18.02.2020 11:46 7,9 C 11,1 C 7,8 C 82 % 1022,8 hPa 0,0 l/m 2 min 0 min 558 W/m 22,5 km/h (4 Bft) 100,00 %
18.02.2020 11:48 8,0 C 10,6 C 8,3 C 82 % 1022,8 hPa 0,0 l/m 2 min 0 min 308 W/m 16,1 km/h (3 Bft) 100,00 %
18.02.2020 11:50 8,1 C 10,6 C 8,9 C 82 % 1022,9 hPa 0,0 l/m 2 min 0 min 292 W/m 32,2 km/h (5 Bft) 100,00 %
18.02.2020 11:52 8,2 C 8,9 C 8,3 C 81 % 1022,8 hPa 0,0 l/m 0 min 0 min 188 W/m 38,6 km/h (5 Bft) 97,87 %
18.02.2020 11:54 8,2 C 8,3 C 8,3 C 81 % 1022,9 hPa 0,0 l/m 0 min 0 min 132 W/m 38,6 km/h (5 Bft) 100,00 %
18.02.2020 11:56 8,2 C 7,8 C 8,3 C 80 % 1023,0 hPa 0,0 l/m 0 min 0 min 119 W/m 22,5 km/h (4 Bft) 97,87 %
18.02.2020 11:58 8,2 C 7,8 C 7,8 C 80 % 1022,9 hPa 0,0 l/m 0 min 0 min 144 W/m 25,7 km/h (4 Bft) 100,00 %
18.02.2020 12:00 8,2 C 7,8 C 8,3 C 80 % 1022,8 hPa 0,0 l/m 0 min 0 min 156 W/m 22,5 km/h (4 Bft) 100,00 %
18.02.2020 12:02 8,2 C 8,3 C 8,3 C 80 % 1022,9 hPa 0,0 l/m 0 min 0 min 156 W/m 29,0 km/h (5 Bft) 100,00 %
18.02.2020 12:04 8,2 C 8,9 C 8,3 C 80 % 1022,9 hPa 0,0 l/m 2 min 0 min 228 W/m 35,4 km/h (5 Bft) 100,00 %
18.02.2020 12:08 8,2 C 8,3 C 8,3 C 80 % 1022,9 hPa 0,0 l/m 0 min 0 min 188 W/m 41,8 km/h (6 Bft) 97,85 %
18.02.2020 12:10 8,2 C 8,3 C 7,8 C 80 % 1022,9 hPa 0,0 l/m 0 min 0 min 212 W/m 25,7 km/h (4 Bft) 100,00 %
18.02.2020 12:12 8,2 C 8,9 C 8,3 C 81 % 1022,9 hPa 0,0 l/m 2 min 0 min 233 W/m 16,1 km/h (3 Bft) 100,00 %
18.02.2020 12:14 8,2 C 8,9 C 8,3 C 81 % 1022,9 hPa 0,0 l/m 2 min 0 min 230 W/m 25,7 km/h (4 Bft) 100,00 %
18.02.2020 12:16 8,2 C 8,9 C 8,3 C 81 % 1022,9 hPa 0,0 l/m 0 min 0 min 219 W/m 35,4 km/h (5 Bft) 100,00 %
18.02.2020 12:18 8,2 C 8,9 C 8,3 C 81 % 1022,9 hPa 0,0 l/m 0 min 0 min 218 W/m 25,7 km/h (4 Bft) 100,00 %
18.02.2020 12:20 8,2 C 8,3 C 8,3 C 80 % 1022,9 hPa 0,0 l/m 0 min 0 min 167 W/m 25,7 km/h (4 Bft) 97,83 %
18.02.2020 12:22 8,2 C 7,8 C 8,3 C 80 % 1022,9 hPa 0,0 l/m 0 min 0 min 135 W/m 25,7 km/h (4 Bft) 97,87 %
18.02.2020 12:24 8,2 C 7,8 C 7,8 C 80 % 1023,0 hPa 0,0 l/m 0 min 0 min 134 W/m 25,7 km/h (4 Bft) 97,87 %
18.02.2020 12:26 8,2 C 7,8 C 7,8 C 80 % 1022,9 hPa 0,0 l/m 0 min 0 min 151 W/m 35,4 km/h (5 Bft) 97,87 %
18.02.2020 12:28 8,2 C 8,3 C 7,8 C 80 % 1023,0 hPa 0,0 l/m 0 min 0 min 177 W/m 19,3 km/h (3 Bft) 93,62 %
18.02.2020 12:30 8,2 C 8,3 C 8,3 C 81 % 1022,9 hPa 0,0 l/m 0 min 0 min 170 W/m 12,9 km/h (3 Bft) 95,74 %
18.02.2020 12:32 8,2 C 8,3 C 8,3 C 81 % 1022,9 hPa 0,0 l/m 0 min 0 min 150 W/m 19,3 km/h (3 Bft) 95,65 %
18.02.2020 12:34 8,2 C 7,8 C 7,8 C 81 % 1022,9 hPa 0,0 l/m 0 min 0 min 116 W/m 25,7 km/h (4 Bft) 97,87 %
18.02.2020 12:36 8,2 C 7,8 C 7,8 C 81 % 1022,9 hPa 0,0 l/m 0 min 0 min 124 W/m 29,0 km/h (5 Bft) 97,87 %
18.02.2020 12:38 8,2 C 7,8 C 7,8 C 81 % 1022,7 hPa 0,0 l/m 0 min 0 min 179 W/m 19,3 km/h (3 Bft) 97,87 %
18.02.2020 12:40 8,1 C 8,3 C 7,8 C 81 % 1022,7 hPa 0,0 l/m 0 min 0 min 187 W/m 29,0 km/h (5 Bft) 97,87 %
18.02.2020 12:42 8,1 C 8,3 C 7,8 C 81 % 1022,7 hPa 0,0 l/m 0 min 0 min 139 W/m 19,3 km/h (3 Bft) 97,87 %
18.02.2020 12:44 8,1 C 7,8 C 7,8 C 80 % 1022,6 hPa 0,0 l/m 0 min 0 min 147 W/m 38,6 km/h (5 Bft) 97,83 %
18.02.2020 12:46 8,1 C 7,8 C 7,8 C 80 % 1022,6 hPa 0,0 l/m 0 min 0 min 145 W/m 32,2 km/h (5 Bft) 95,74 %
18.02.2020 12:48 8,1 C 7,8 C 7,8 C 80 % 1022,6 hPa 0,0 l/m 0 min 0 min 148 W/m 41,8 km/h (6 Bft) 97,87 %
18.02.2020 12:50 8,1 C 7,8 C 7,8 C 80 % 1022,7 hPa 0,0 l/m 0 min 0 min 171 W/m 35,4 km/h (5 Bft) 97,87 %
18.02.2020 12:52 8,1 C 10,0 C 9,4 C 80 % 1022,7 hPa 0,0 l/m 2 min 0 min 261 W/m 32,2 km/h (5 Bft) 97,87 %
18.02.2020 12:54 8,2 C 11,7 C 11,1 C 81 % 1022,6 hPa 0,0 l/m 2 min 0 min 494 W/m 25,7 km/h (4 Bft) 97,87 %
18.02.2020 12:56 8,3 C 11,1 C 10,6 C 81 % 1022,7 hPa 0,0 l/m 2 min 0 min 536 W/m 29,0 km/h (5 Bft) 97,83 %
18.02.2020 12:58 8,4 C 10,6 C 10,0 C 80 % 1022,7 hPa 0,0 l/m 2 min 0 min 334 W/m 25,7 km/h (4 Bft) 95,74 %
18.02.2020 13:00 8,4 C 9,4 C 8,9 C 80 % 1022,6 hPa 0,0 l/m 0 min 0 min 189 W/m 35,4 km/h (5 Bft) 97,87 %
18.02.2020 13:02 8,5 C 8,9 C 8,3 C 79 % 1022,5 hPa 0,0 l/m 0 min 0 min 170 W/m 41,8 km/h (6 Bft) 97,87 %
18.02.2020 13:04 8,5 C 8,9 C 8,3 C 79 % 1022,4 hPa 0,0 l/m 0 min 0 min 179 W/m 22,5 km/h (4 Bft) 97,87 %
18.02.2020 13:06 8,5 C 8,3 C 8,3 C 79 % 1022,4 hPa 0,0 l/m 0 min 0 min 178 W/m 25,7 km/h (4 Bft) 100,00 %
18.02.2020 13:08 8,6 C 8,3 C 8,3 C 79 % 1022,4 hPa 0,0 l/m 0 min 0 min 184 W/m 22,5 km/h (4 Bft) 100,00 %
18.02.2020 13:10 8,6 C 8,3 C 8,3 C 79 % 1022,4 hPa 0,0 l/m 0 min 0 min 207 W/m 32,2 km/h (5 Bft) 100,00 %
18.02.2020 13:12 8,5 C 8,3 C 8,3 C 79 % 1022,4 hPa 0,0 l/m 0 min 0 min 180 W/m 25,7 km/h (4 Bft) 97,87 %
18.02.2020 13:14 8,6 C 8,9 C 8,3 C 79 % 1022,4 hPa 0,0 l/m 0 min 0 min 195 W/m 35,4 km/h (5 Bft) 100,00 %
18.02.2020 13:16 8,6 C 8,9 C 8,3 C 79 % 1022,3 hPa 0,0 l/m 0 min 0 min 191 W/m 32,2 km/h (5 Bft) 100,00 %
18.02.2020 13:18 8,5 C 8,3 C 8,3 C 79 % 1022,2 hPa 0,0 l/m 0 min 0 min 212 W/m 38,6 km/h (5 Bft) 100,00 %
18.02.2020 13:20 8,5 C 8,3 C 8,3 C 79 % 1022,2 hPa 0,0 l/m 0 min 0 min 158 W/m 32,2 km/h (5 Bft) 100,00 %
18.02.2020 13:22 8,5 C 8,3 C 7,8 C 79 % 1022,2 hPa 0,0 l/m 0 min 0 min 111 W/m 19,3 km/h (3 Bft) 100,00 %
18.02.2020 13:24 8,4 C 7,8 C 7,8 C 79 % 1022,2 hPa 0,0 l/m 0 min 0 min 81 W/m 12,9 km/h (3 Bft) 100,00 %
18.02.2020 13:26 8,4 C 7,8 C 7,8 C 79 % 1022,2 hPa 0,0 l/m 0 min 0 min 72 W/m 22,5 km/h (4 Bft) 97,87 %
18.02.2020 13:28 8,4 C 7,8 C 7,8 C 79 % 1022,2 hPa 0,0 l/m 0 min 0 min 88 W/m 22,5 km/h (4 Bft) 100,00 %
18.02.2020 13:30 8,4 C 7,8 C 7,8 C 79 % 1022,3 hPa 0,0 l/m 0 min 0 min 117 W/m 48,3 km/h (6 Bft) 100,00 %
18.02.2020 13:32 8,4 C 7,8 C 7,8 C 78 % 1022,4 hPa 0,0 l/m 0 min 0 min 115 W/m 32,2 km/h (5 Bft) 100,00 %
18.02.2020 13:34 8,4 C 7,8 C 7,8 C 78 % 1022,3 hPa 0,0 l/m 0 min 0 min 118 W/m 22,5 km/h (4 Bft) 100,00 %
18.02.2020 13:36 8,4 C 7,8 C 7,8 C 79 % 1022,2 hPa 0,0 l/m 0 min 0 min 108 W/m 16,1 km/h (3 Bft) 97,87 %
18.02.2020 13:38 8,4 C 7,8 C 7,8 C 79 % 1022,2 hPa 0,0 l/m 0 min 0 min 119 W/m 25,7 km/h (4 Bft) 100,00 %
18.02.2020 13:40 8,4 C 8,3 C 7,8 C 79 % 1022,2 hPa 0,0 l/m 0 min 0 min 122 W/m 19,3 km/h (3 Bft) 100,00 %
18.02.2020 13:42 8,4 C 8,3 C 7,8 C 79 % 1022,2 hPa 0,0 l/m 0 min 0 min 109 W/m 22,5 km/h (4 Bft) 100,00 %
18.02.2020 13:44 8,3 C 8,3 C 7,8 C 79 % 1022,1 hPa 0,0 l/m 0 min 0 min 107 W/m 22,5 km/h (4 Bft) 97,87 %
18.02.2020 13:46 8,3 C 7,8 C 7,8 C 78 % 1022,2 hPa 0,0 l/m 0 min 0 min 111 W/m 29,0 km/h (5 Bft) 95,74 %
18.02.2020 13:48 8,3 C 7,8 C 7,8 C 78 % 1022,1 hPa 0,0 l/m 0 min 0 min 96 W/m 19,3 km/h (3 Bft) 97,87 %
18.02.2020 13:50 8,3 C 7,8 C 7,8 C 78 % 1022,2 hPa 0,0 l/m 0 min 0 min 96 W/m 25,7 km/h (4 Bft) 93,62 %
18.02.2020 13:52 8,3 C 7,8 C 7,8 C 78 % 1022,1 hPa 0,0 l/m 0 min 0 min 107 W/m 22,5 km/h (4 Bft) 95,74 %
18.02.2020 13:54 8,3 C 7,8 C 7,8 C 79 % 1022,1 hPa 0,0 l/m 0 min 0 min 112 W/m 19,3 km/h (3 Bft) 95,65 %
18.02.2020 13:56 8,3 C 7,8 C 7,8 C 79 % 1022,2 hPa 0,0 l/m 0 min 0 min 130 W/m 22,5 km/h (4 Bft) 95,74 %
18.02.2020 13:58 8,3 C 7,8 C 7,8 C 79 % 1022,2 hPa 0,0 l/m 0 min 0 min 104 W/m 22,5 km/h (4 Bft) 95,74 %
18.02.2020 14:00 8,3 C 7,2 C 7,2 C 79 % 1022,2 hPa 0,0 l/m 0 min 0 min 93 W/m 29,0 km/h (5 Bft) 95,74 %
18.02.2020 14:02 8,2 C 6,7 C 6,7 C 79 % 1022,3 hPa 0,0 l/m 0 min 2 min 92 W/m 32,2 km/h (5 Bft) 93,62 %
18.02.2020 14:04 8,1 C 6,1 C 6,1 C 80 % 1022,3 hPa 0,0 l/m 0 min 2 min 72 W/m 32,2 km/h (5 Bft) 95,74 %
18.02.2020 14:06 8,1 C 5,6 C 5,6 C 81 % 1022,3 hPa 0,0 l/m 0 min 2 min 97 W/m 25,7 km/h (4 Bft) 95,65 %
18.02.2020 14:08 7,9 C 5,6 C 5,6 C 82 % 1022,2 hPa 0,0 l/m 0 min 2 min 112 W/m 22,5 km/h (4 Bft) 95,74 %
18.02.2020 14:10 7,8 C 6,1 C 5,6 C 83 % 1022,2 hPa 0,0 l/m 0 min 2 min 120 W/m 19,3 km/h (3 Bft) 95,74 %
18.02.2020 14:12 7,8 C 6,1 C 5,6 C 83 % 1022,2 hPa 0,0 l/m 0 min 2 min 108 W/m 16,1 km/h (3 Bft) 95,74 %
18.02.2020 14:14 7,8 C 6,1 C 6,1 C 84 % 1022,2 hPa 0,0 l/m 0 min 2 min 100 W/m 12,9 km/h (3 Bft) 95,74 %
18.02.2020 14:16 7,7 C 6,7 C 6,1 C 84 % 1022,0 hPa 0,0 l/m 0 min 2 min 130 W/m 22,5 km/h (4 Bft) 95,65 %
18.02.2020 14:18 7,7 C 6,7 C 6,7 C 84 % 1022,1 hPa 0,0 l/m 0 min 2 min 139 W/m 22,5 km/h (4 Bft) 93,62 %
18.02.2020 14:20 7,7 C 7,2 C 6,7 C 85 % 1022,1 hPa 0,0 l/m 0 min 2 min 150 W/m 16,1 km/h (3 Bft) 89,36 %
18.02.2020 14:22 7,7 C 7,8 C 7,2 C 85 % 1022,1 hPa 0,0 l/m 0 min 2 min 174 W/m 22,5 km/h (4 Bft) 93,62 %
18.02.2020 14:24 7,7 C 7,8 C 7,2 C 85 % 1022,0 hPa 0,0 l/m 0 min 2 min 153 W/m 22,5 km/h (4 Bft) 95,74 %
18.02.2020 14:26 7,7 C 8,3 C 7,2 C 84 % 1022,1 hPa 0,0 l/m 0 min 2 min 140 W/m 32,2 km/h (5 Bft) 95,74 %
18.02.2020 14:28 7,8 C 8,3 C 7,8 C 84 % 1022,0 hPa 0,0 l/m 0 min 2 min 173 W/m 22,5 km/h (4 Bft) 95,65 %
18.02.2020 14:30 7,8 C 8,3 C 7,8 C 84 % 1022,0 hPa 0,0 l/m 0 min 2 min 164 W/m 29,0 km/h (5 Bft) 95,74 %
18.02.2020 14:32 7,9 C 8,3 C 7,8 C 84 % 1022,0 hPa 0,0 l/m 0 min 2 min 142 W/m 22,5 km/h (4 Bft) 95,74 %
18.02.2020 14:34 7,9 C 8,3 C 7,8 C 84 % 1021,9 hPa 0,0 l/m 0 min 0 min 140 W/m 25,7 km/h (4 Bft) 95,74 %
18.02.2020 14:36 7,9 C 7,8 C 7,8 C 83 % 1021,9 hPa 0,0 l/m 0 min 0 min 118 W/m 29,0 km/h (5 Bft) 93,62 %
18.02.2020 14:38 8,0 C 7,8 C 7,8 C 83 % 1022,0 hPa 0,0 l/m 0 min 2 min 91 W/m 22,5 km/h (4 Bft) 97,87 %
18.02.2020 14:40 8,0 C 7,8 C 7,8 C 82 % 1021,9 hPa 0,0 l/m 0 min 0 min 84 W/m 16,1 km/h (3 Bft) 97,83 %
18.02.2020 14:42 8,1 C 7,8 C 7,2 C 82 % 1021,9 hPa 0,0 l/m 0 min 0 min 91 W/m 29,0 km/h (5 Bft) 95,74 %
18.02.2020 14:44 8,1 C 7,8 C 7,2 C 81 % 1021,8 hPa 0,0 l/m 0 min 0 min 98 W/m 25,7 km/h (4 Bft) 97,87 %
18.02.2020 14:46 8,1 C 7,8 C 7,2 C 81 % 1021,9 hPa 0,0 l/m 0 min 2 min 102 W/m 25,7 km/h (4 Bft) 97,87 %
18.02.2020 14:48 8,1 C 7,8 C 7,2 C 81 % 1022,0 hPa 0,0 l/m 0 min 0 min 124 W/m 19,3 km/h (3 Bft) 97,87 %
18.02.2020 14:50 8,1 C 6,7 C 6,7 C 82 % 1021,9 hPa 0,0 l/m 0 min 2 min 121 W/m 19,3 km/h (3 Bft) 100,00 %
18.02.2020 14:52 8,1 C 6,1 C 6,1 C 82 % 1021,9 hPa 0,0 l/m 0 min 2 min 100 W/m 38,6 km/h (5 Bft) 100,00 %
18.02.2020 14:54 8,1 C 6,7 C 6,1 C 82 % 1022,0 hPa 0,0 l/m 0 min 2 min 167 W/m 29,0 km/h (5 Bft) 100,00 %
18.02.2020 14:56 8,0 C 7,2 C 6,1 C 83 % 1022,0 hPa 0,0 l/m 2 min 2 min 305 W/m 32,2 km/h (5 Bft) 100,00 %
18.02.2020 14:58 7,9 C 6,7 C 6,1 C 84 % 1022,0 hPa 0,0 l/m 2 min 2 min 241 W/m 35,4 km/h (5 Bft) 95,74 %
18.02.2020 15:00 7,9 C 7,2 C 6,1 C 84 % 1021,8 hPa 0,0 l/m 2 min 2 min 184 W/m 57,9 km/h (7 Bft) 95,74 %
18.02.2020 15:02 7,9 C 7,2 C 6,1 C 83 % 1021,8 hPa 0,0 l/m 0 min 2 min 174 W/m 38,6 km/h (5 Bft) 97,87 %
18.02.2020 15:04 7,9 C 7,8 C 6,7 C 84 % 1021,8 hPa 0,0 l/m 0 min 2 min 164 W/m 22,5 km/h (4 Bft) 95,65 %
18.02.2020 15:06 7,9 C 7,8 C 6,7 C 84 % 1021,8 hPa 0,0 l/m 0 min 2 min 153 W/m 6,4 km/h (2 Bft) 95,74 %
18.02.2020 15:08 7,9 C 7,8 C 7,2 C 84 % 1021,7 hPa 0,0 l/m 0 min 2 min 162 W/m 25,7 km/h (4 Bft) 95,74 %
18.02.2020 15:10 7,9 C 8,3 C 7,2 C 84 % 1021,6 hPa 0,0 l/m 2 min 2 min 189 W/m 16,1 km/h (3 Bft) 97,87 %
18.02.2020 15:12 7,9 C 8,3 C 7,2 C 84 % 1021,5 hPa 0,0 l/m 2 min 2 min 180 W/m 22,5 km/h (4 Bft) 97,87 %
18.02.2020 15:14 7,9 C 8,3 C 7,2 C 84 % 1021,5 hPa 0,0 l/m 2 min 2 min 179 W/m 16,1 km/h (3 Bft) 97,83 %
18.02.2020 15:16 7,9 C 8,3 C 7,8 C 84 % 1021,6 hPa 0,0 l/m 2 min 2 min 180 W/m 12,9 km/h (3 Bft) 97,87 %
18.02.2020 15:18 7,9 C 8,3 C 7,8 C 84 % 1021,6 hPa 0,0 l/m 0 min 0 min 151 W/m 12,9 km/h (3 Bft) 97,87 %
18.02.2020 15:20 7,9 C 8,3 C 7,8 C 84 % 1021,6 hPa 0,0 l/m 0 min 0 min 132 W/m 41,8 km/h (6 Bft) 97,87 %
18.02.2020 15:22 7,9 C 8,3 C 7,2 C 84 % 1021,6 hPa 0,0 l/m 0 min 0 min 117 W/m 35,4 km/h (5 Bft) 95,74 %
18.02.2020 15:24 8,0 C 7,8 C 7,2 C 84 % 1021,6 hPa 0,0 l/m 0 min 2 min 110 W/m 19,3 km/h (3 Bft) 97,87 %
18.02.2020 15:26 8,0 C 7,8 C 7,2 C 83 % 1021,7 hPa 0,0 l/m 0 min 0 min 94 W/m 25,7 km/h (4 Bft) 97,83 %
18.02.2020 15:28 8,1 C 7,8 C 7,2 C 83 % 1021,6 hPa 0,0 l/m 0 min 2 min 76 W/m 19,3 km/h (3 Bft) 97,87 %
18.02.2020 15:30 8,1 C 7,8 C 7,2 C 82 % 1021,6 hPa 0,0 l/m 0 min 0 min 72 W/m 25,7 km/h (4 Bft) 97,87 %
18.02.2020 15:32 8,1 C 7,8 C 7,2 C 82 % 1021,6 hPa 0,0 l/m 0 min 0 min 73 W/m 25,7 km/h (4 Bft) 97,87 %
18.02.2020 15:34 8,1 C 7,8 C 7,2 C 82 % 1021,7 hPa 0,0 l/m 0 min 0 min 63 W/m 29,0 km/h (5 Bft) 97,87 %
18.02.2020 15:36 8,1 C 7,8 C 7,2 C 82 % 1021,6 hPa 0,0 l/m 0 min 0 min 63 W/m 22,5 km/h (4 Bft) 95,74 %
18.02.2020 15:38 8,1 C 7,8 C 7,2 C 82 % 1021,7 hPa 0,0 l/m 0 min 0 min 70 W/m 19,3 km/h (3 Bft) 97,83 %
18.02.2020 15:40 8,1 C 7,8 C 7,2 C 81 % 1021,6 hPa 0,0 l/m 0 min 0 min 80 W/m 22,5 km/h (4 Bft) 95,74 %
18.02.2020 15:42 8,2 C 7,8 C 7,8 C 81 % 1021,5 hPa 0,0 l/m 0 min 0 min 77 W/m 25,7 km/h (4 Bft) 100,00 %
18.02.2020 15:44 8,2 C 8,3 C 7,8 C 81 % 1021,5 hPa 0,0 l/m 0 min 0 min 86 W/m 19,3 km/h (3 Bft) 97,87 %
18.02.2020 15:46 8,2 C 8,3 C 7,8 C 81 % 1021,5 hPa 0,0 l/m 2 min 0 min 145 W/m 19,3 km/h (3 Bft) 97,87 %
18.02.2020 15:48 8,3 C 9,4 C 7,8 C 81 % 1021,4 hPa 0,0 l/m 2 min 0 min 212 W/m 25,7 km/h (4 Bft) 100,00 %
18.02.2020 15:50 8,3 C 9,4 C 7,8 C 80 % 1021,4 hPa 0,0 l/m 2 min 0 min 231 W/m 32,2 km/h (5 Bft) 100,00 %
18.02.2020 15:52 8,4 C 10,0 C 8,3 C 80 % 1021,4 hPa 0,0 l/m 2 min 0 min 207 W/m 19,3 km/h (3 Bft) 100,00 %
18.02.2020 15:54 8,4 C 10,6 C 8,3 C 80 % 1021,4 hPa 0,0 l/m 2 min 0 min 264 W/m 25,7 km/h (4 Bft) 97,87 %
18.02.2020 15:56 8,6 C 10,0 C 8,3 C 79 % 1021,3 hPa 0,0 l/m 2 min 0 min 277 W/m 25,7 km/h (4 Bft) 100,00 %
18.02.2020 15:58 8,6 C 10,0 C 7,8 C 79 % 1021,4 hPa 0,0 l/m 2 min 0 min 170 W/m 22,5 km/h (4 Bft) 100,00 %
18.02.2020 16:00 8,7 C 10,6 C 8,3 C 78 % 1021,3 hPa 0,0 l/m 2 min 0 min 291 W/m 22,5 km/h (4 Bft) 100,00 %
18.02.2020 16:02 8,8 C 11,1 C 8,3 C 79 % 1021,3 hPa 0,0 l/m 2 min 0 min 262 W/m 19,3 km/h (3 Bft) 100,00 %
18.02.2020 16:04 8,8 C 10,6 C 8,3 C 78 % 1021,3 hPa 0,0 l/m 2 min 0 min 234 W/m 22,5 km/h (4 Bft) 100,00 %
18.02.2020 16:06 8,8 C 10,6 C 8,3 C 78 % 1021,3 hPa 0,0 l/m 2 min 0 min 231 W/m 19,3 km/h (3 Bft) 100,00 %
18.02.2020 16:08 8,9 C 10,6 C 7,8 C 78 % 1021,3 hPa 0,0 l/m 2 min 0 min 189 W/m 32,2 km/h (5 Bft) 100,00 %
18.02.2020 16:10 8,9 C 10,0 C 7,8 C 77 % 1021,3 hPa 0,0 l/m 2 min 0 min 175 W/m 22,5 km/h (4 Bft) 100,00 %
18.02.2020 16:12 8,9 C 10,0 C 7,8 C 77 % 1021,4 hPa 0,0 l/m 2 min 0 min 153 W/m 35,4 km/h (5 Bft) 100,00 %
18.02.2020 16:14 8,9 C 10,0 C 7,8 C 77 % 1021,4 hPa 0,0 l/m 2 min 0 min 151 W/m 19,3 km/h (3 Bft) 100,00 %
18.02.2020 16:16 8,9 C 9,4 C 7,8 C 77 % 1021,4 hPa 0,0 l/m 2 min 0 min 139 W/m 35,4 km/h (5 Bft) 100,00 %
18.02.2020 16:18 8,9 C 9,4 C 7,8 C 76 % 1021,3 hPa 0,0 l/m 2 min 0 min 148 W/m 16,1 km/h (3 Bft) 100,00 %
18.02.2020 16:20 8,9 C 9,4 C 7,8 C 76 % 1021,3 hPa 0,0 l/m 2 min 0 min 175 W/m 19,3 km/h (3 Bft) 100,00 %
18.02.2020 16:22 8,9 C 8,9 C 7,8 C 76 % 1021,3 hPa 0,0 l/m 2 min 0 min 156 W/m 22,5 km/h (4 Bft) 97,87 %
18.02.2020 16:24 8,9 C 8,9 C 7,8 C 76 % 1021,3 hPa 0,0 l/m 2 min 0 min 150 W/m 25,7 km/h (4 Bft) 100,00 %
18.02.2020 16:26 8,9 C 8,9 C 7,8 C 76 % 1021,3 hPa 0,0 l/m 2 min 0 min 121 W/m 19,3 km/h (3 Bft) 100,00 %
18.02.2020 16:28 8,9 C 8,3 C 7,8 C 77 % 1021,3 hPa 0,0 l/m 2 min 0 min 115 W/m 19,3 km/h (3 Bft) 100,00 %
18.02.2020 16:30 8,9 C 8,3 C 7,8 C 77 % 1021,3 hPa 0,0 l/m 0 min 0 min 80 W/m 22,5 km/h (4 Bft) 100,00 %
18.02.2020 16:32 8,9 C 8,3 C 7,8 C 76 % 1021,2 hPa 0,0 l/m 0 min 0 min 68 W/m 22,5 km/h (4 Bft) 97,87 %
18.02.2020 16:34 8,8 C 8,3 C 7,8 C 76 % 1021,2 hPa 0,0 l/m 0 min 0 min 65 W/m 22,5 km/h (4 Bft) 100,00 %
18.02.2020 16:36 8,8 C 8,3 C 7,8 C 76 % 1021,1 hPa 0,0 l/m 0 min 0 min 58 W/m 16,1 km/h (3 Bft) 100,00 %
18.02.2020 16:38 8,8 C 8,3 C 7,8 C 76 % 1021,1 hPa 0,0 l/m 0 min 0 min 53 W/m 19,3 km/h (3 Bft) 100,00 %
18.02.2020 16:40 8,8 C 8,3 C 7,8 C 76 % 1021,1 hPa 0,0 l/m 0 min 0 min 52 W/m 19,3 km/h (3 Bft) 97,87 %
18.02.2020 16:42 8,8 C 8,3 C 7,2 C 76 % 1021,1 hPa 0,0 l/m 0 min 0 min 49 W/m 12,9 km/h (3 Bft) 97,87 %
18.02.2020 16:44 8,8 C 8,3 C 7,2 C 77 % 1021,0 hPa 0,0 l/m 0 min 0 min 53 W/m 22,5 km/h (4 Bft) 100,00 %
18.02.2020 16:46 8,8 C 8,3 C 7,2 C 77 % 1021,0 hPa 0,0 l/m 0 min 0 min 53 W/m 25,7 km/h (4 Bft) 100,00 %
18.02.2020 16:48 8,7 C 8,3 C 7,2 C 77 % 1021,0 hPa 0,0 l/m 0 min 0 min 49 W/m 22,5 km/h (4 Bft) 100,00 %
18.02.2020 16:50 8,7 C 8,3 C 7,2 C 77 % 1021,0 hPa 0,0 l/m 0 min 0 min 51 W/m 19,3 km/h (3 Bft) 97,87 %
18.02.2020 16:52 8,7 C 8,3 C 7,2 C 77 % 1021,0 hPa 0,0 l/m 0 min 0 min 49 W/m 32,2 km/h (5 Bft) 97,87 %
18.02.2020 16:54 8,7 C 7,8 C 7,2 C 77 % 1021,1 hPa 0,0 l/m 0 min 0 min 40 W/m 25,7 km/h (4 Bft) 97,87 %
18.02.2020 16:56 8,7 C 7,8 C 7,2 C 77 % 1021,0 hPa 0,0 l/m 0 min 0 min 39 W/m 19,3 km/h (3 Bft) 97,87 %
18.02.2020 16:58 8,7 C 7,8 C 7,2 C 77 % 1021,1 hPa 0,0 l/m 0 min 0 min 38 W/m 32,2 km/h (5 Bft) 95,74 %
18.02.2020 17:00 8,6 C 7,8 C 7,2 C 77 % 1021,1 hPa 0,0 l/m 0 min 0 min 37 W/m 19,3 km/h (3 Bft) 95,65 %
18.02.2020 17:02 8,6 C 7,8 C 7,2 C 77 % 1021,0 hPa 0,0 l/m 0 min 0 min 35 W/m 41,8 km/h (6 Bft) 93,62 %
18.02.2020 17:04 8,6 C 7,8 C 7,2 C 77 % 1021,0 hPa 0,0 l/m 0 min 0 min 35 W/m 19,3 km/h (3 Bft) 93,33 %
18.02.2020 17:06 8,6 C 7,8 C 7,2 C 77 % 1020,9 hPa 0,0 l/m 0 min 0 min 33 W/m 19,3 km/h (3 Bft) 95,74 %
18.02.2020 17:08 8,6 C 7,8 C 7,2 C 77 % 1020,9 hPa 0,0 l/m 0 min 0 min 34 W/m 19,3 km/h (3 Bft) 97,87 %
18.02.2020 17:10 8,6 C 7,8 C 7,2 C 77 % 1020,9 hPa 0,0 l/m 0 min 0 min 34 W/m 22,5 km/h (4 Bft) 95,74 %
18.02.2020 17:12 8,5 C 7,8 C 7,2 C 77 % 1021,0 hPa 0,0 l/m 0 min 0 min 32 W/m 16,1 km/h (3 Bft) 95,74 %
18.02.2020 17:14 8,5 C 7,8 C 7,2 C 77 % 1020,9 hPa 0,0 l/m 0 min 0 min 27 W/m 22,5 km/h (4 Bft) 95,65 %
18.02.2020 17:16 8,4 C 7,8 C 7,2 C 77 % 1020,9 hPa 0,0 l/m 0 min 0 min 26 W/m 29,0 km/h (5 Bft) 93,62 %
18.02.2020 17:18 8,4 C 7,8 C 7,2 C 77 % 1020,9 hPa 0,0 l/m 0 min 0 min 32 W/m 29,0 km/h (5 Bft) 93,62 %
18.02.2020 17:20 8,4 C 7,8 C 7,2 C 77 % 1020,9 hPa 0,0 l/m 0 min 0 min 30 W/m 19,3 km/h (3 Bft) 95,74 %
18.02.2020 17:22 8,4 C 7,8 C 7,2 C 77 % 1020,8 hPa 0,0 l/m 0 min 0 min 26 W/m 16,1 km/h (3 Bft) 95,74 %
18.02.2020 17:24 8,4 C 7,8 C 7,2 C 77 % 1020,8 hPa 0,0 l/m 0 min 0 min 30 W/m 16,1 km/h (3 Bft) 95,74 %
18.02.2020 17:26 8,4 C 7,8 C 7,2 C 77 % 1020,8 hPa 0,0 l/m 2 min 0 min 33 W/m 16,1 km/h (3 Bft) 95,65 %
18.02.2020 17:28 8,4 C 7,8 C 7,2 C 77 % 1020,8 hPa 0,0 l/m 2 min 0 min 32 W/m 29,0 km/h (5 Bft) 97,87 %
18.02.2020 17:30 8,4 C 7,8 C 7,2 C 77 % 1020,8 hPa 0,0 l/m 0 min 0 min 20 W/m 25,7 km/h (4 Bft) 97,87 %
18.02.2020 17:32 8,3 C 7,8 C 7,2 C 77 % 1020,8 hPa 0,0 l/m 0 min 0 min 16 W/m 25,7 km/h (4 Bft) 97,87 %
18.02.2020 17:34 8,3 C 7,2 C 7,2 C 77 % 1020,8 hPa 0,0 l/m 0 min 0 min 14 W/m 19,3 km/h (3 Bft) 93,62 %
18.02.2020 17:36 8,3 C 7,2 C 7,2 C 77 % 1020,9 hPa 0,0 l/m 0 min 0 min 12 W/m 29,0 km/h (5 Bft) 95,74 %
18.02.2020 17:38 8,3 C 7,2 C 6,7 C 77 % 1020,7 hPa 0,0 l/m 0 min 0 min 11 W/m 22,5 km/h (4 Bft) 95,65 %
18.02.2020 17:40 8,3 C 7,2 C 6,7 C 77 % 1020,7 hPa 0,0 l/m 0 min 0 min 9 W/m 16,1 km/h (3 Bft) 95,74 %
18.02.2020 17:42 8,3 C 7,2 C 6,7 C 77 % 1020,7 hPa 0,0 l/m 0 min 0 min 7 W/m 25,7 km/h (4 Bft) 93,62 %
18.02.2020 17:44 8,2 C 7,2 C 6,7 C 77 % 1020,7 hPa 0,0 l/m 0 min 0 min 7 W/m 25,7 km/h (4 Bft) 95,74 %
18.02.2020 17:46 8,2 C 7,2 C 6,7 C 77 % 1020,7 hPa 0,0 l/m 0 min 0 min 6 W/m 25,7 km/h (4 Bft) 95,74 %
18.02.2020 17:48 8,2 C 7,2 C 6,7 C 78 % 1020,7 hPa 0,0 l/m 0 min 0 min 5 W/m 25,7 km/h (4 Bft) 95,65 %
18.02.2020 17:50 8,1 C 7,2 C 6,7 C 78 % 1020,7 hPa 0,0 l/m 0 min 0 min 5 W/m 12,9 km/h (3 Bft) 95,74 %
18.02.2020 17:52 8,1 C 7,2 C 6,7 C 78 % 1020,7 hPa 0,0 l/m 0 min 0 min 4 W/m 16,1 km/h (3 Bft) 91,49 %
18.02.2020 17:54 8,1 C 6,7 C 6,7 C 78 % 1020,8 hPa 0,0 l/m 0 min 0 min 0 W/m 16,1 km/h (3 Bft) 95,74 %
18.02.2020 17:56 8,1 C 7,2 C 6,7 C 78 % 1020,7 hPa 0,0 l/m 0 min 0 min 0 W/m 22,5 km/h (4 Bft) 93,62 %
18.02.2020 17:58 8,0 C 7,2 C 6,7 C 78 % 1020,7 hPa 0,0 l/m 0 min 0 min 0 W/m 32,2 km/h (5 Bft) 91,49 %
18.02.2020 18:00 8,0 C 7,2 C 6,7 C 78 % 1020,7 hPa 0,0 l/m 0 min 0 min 0 W/m 29,0 km/h (5 Bft) 97,83 %
18.02.2020 18:02 8,0 C 7,2 C 6,7 C 78 % 1020,7 hPa 0,0 l/m 0 min 0 min 0 W/m 19,3 km/h (3 Bft) 93,62 %
18.02.2020 18:04 7,9 C 7,2 C 6,7 C 79 % 1020,7 hPa 0,0 l/m 0 min 0 min 0 W/m 25,7 km/h (4 Bft) 97,87 %
18.02.2020 18:07 7,9 C 7,2 C 6,7 C 79 % 1020,6 hPa 0,0 l/m 0 min 0 min 0 W/m 29,0 km/h (5 Bft) 95,71 %
18.02.2020 18:08 7,9 C 7,2 C 6,7 C 79 % 1020,6 hPa 0,0 l/m 0 min 0 min 0 W/m 25,7 km/h (4 Bft) 100,00 %
18.02.2020 18:10 7,9 C 7,2 C 6,7 C 79 % 1020,7 hPa 0,0 l/m 0 min 0 min 0 W/m 29,0 km/h (5 Bft) 97,83 %
18.02.2020 18:12 7,9 C 7,2 C 6,7 C 79 % 1020,6 hPa 0,0 l/m 0 min 0 min 0 W/m 25,7 km/h (4 Bft) 95,74 %
18.02.2020 18:14 7,9 C 6,7 C 6,7 C 79 % 1020,5 hPa 0,0 l/m 0 min 0 min 0 W/m 19,3 km/h (3 Bft) 97,87 %
18.02.2020 18:16 7,9 C 6,7 C 6,1 C 79 % 1020,5 hPa 0,0 l/m 0 min 0 min 0 W/m 29,0 km/h (5 Bft) 93,62 %
18.02.2020 18:18 7,8 C 6,7 C 6,7 C 79 % 1020,6 hPa 0,0 l/m 0 min 0 min 0 W/m 29,0 km/h (5 Bft) 97,87 %
18.02.2020 18:20 7,8 C 6,7 C 6,7 C 79 % 1020,6 hPa 0,0 l/m 0 min 0 min 0 W/m 29,0 km/h (5 Bft) 97,87 %
18.02.2020 18:22 7,8 C 6,7 C 6,1 C 79 % 1020,6 hPa 0,0 l/m 0 min 0 min 0 W/m 22,5 km/h (4 Bft) 95,65 %
18.02.2020 18:24 7,8 C 6,7 C 6,1 C 79 % 1020,6 hPa 0,0 l/m 0 min 0 min 0 W/m 25,7 km/h (4 Bft) 97,87 %
18.02.2020 18:26 7,8 C 6,7 C 6,1 C 79 % 1020,6 hPa 0,0 l/m 0 min 0 min 0 W/m 19,3 km/h (3 Bft) 97,87 %
18.02.2020 18:28 7,7 C 6,7 C 6,1 C 79 % 1020,6 hPa 0,0 l/m 0 min 0 min 0 W/m 22,5 km/h (4 Bft) 100,00 %
18.02.2020 18:30 7,7 C 6,7 C 6,1 C 79 % 1020,5 hPa 0,0 l/m 0 min 0 min 0 W/m 16,1 km/h (3 Bft) 100,00 %
18.02.2020 18:32 7,7 C 6,7 C 6,1 C 79 % 1020,5 hPa 0,0 l/m 0 min 0 min 0 W/m 22,5 km/h (4 Bft) 100,00 %
18.02.2020 18:34 7,7 C 6,7 C 6,1 C 79 % 1020,6 hPa 0,0 l/m 0 min 0 min 0 W/m 22,5 km/h (4 Bft) 97,83 %
18.02.2020 18:36 7,7 C 6,7 C 6,1 C 79 % 1020,6 hPa 0,0 l/m 0 min 0 min 0 W/m 22,5 km/h (4 Bft) 61,70 %
18.02.2020 18:38 7,6 C 6,7 C 6,1 C 80 % 1020,5 hPa 0,0 l/m 0 min 0 min 0 W/m 19,3 km/h (3 Bft) 95,24 %
18.02.2020 18:40 7,6 C 6,7 C 6,1 C 80 % 1020,6 hPa 0,0 l/m 0 min 0 min 0 W/m 19,3 km/h (3 Bft) 100,00 %
18.02.2020 18:42 7,6 C 6,7 C 6,1 C 80 % 1020,6 hPa 0,0 l/m 0 min 0 min 0 W/m 19,3 km/h (3 Bft) 100,00 %
18.02.2020 18:44 7,6 C 6,7 C 6,1 C 80 % 1020,6 hPa 0,0 l/m 0 min 0 min 0 W/m 16,1 km/h (3 Bft) 100,00 %
18.02.2020 18:46 7,5 C 6,7 C 6,1 C 80 % 1020,7 hPa 0,0 l/m 0 min 0 min 0 W/m 22,5 km/h (4 Bft) 100,00 %
18.02.2020 18:48 7,5 C 6,7 C 6,1 C 80 % 1020,7 hPa 0,0 l/m 0 min 0 min 0 W/m 12,9 km/h (3 Bft) 100,00 %
18.02.2020 18:50 7,4 C 6,7 C 6,1 C 80 % 1020,7 hPa 0,0 l/m 0 min 0 min 0 W/m 19,3 km/h (3 Bft) 97,87 %
18.02.2020 18:52 7,4 C 6,7 C 6,1 C 80 % 1020,6 hPa 0,0 l/m 0 min 0 min 0 W/m 19,3 km/h (3 Bft) 100,00 %
18.02.2020 18:54 7,4 C 6,7 C 6,1 C 80 % 1020,6 hPa 0,0 l/m 0 min 0 min 0 W/m 29,0 km/h (5 Bft) 100,00 %
18.02.2020 18:56 7,4 C 6,7 C 6,1 C 80 % 1020,6 hPa 0,0 l/m 0 min 0 min 0 W/m 22,5 km/h (4 Bft) 97,83 %
18.02.2020 18:58 7,4 C 6,7 C 6,1 C 80 % 1020,6 hPa 0,0 l/m 0 min 0 min 0 W/m 16,1 km/h (3 Bft) 91,49 %
18.02.2020 19:00 7,4 C 6,7 C 6,1 C 80 % 1020,5 hPa 0,0 l/m 0 min 0 min 0 W/m 25,7 km/h (4 Bft) 100,00 %
18.02.2020 19:02 7,4 C 6,7 C 6,1 C 80 % 1020,5 hPa 0,0 l/m 0 min 0 min 0 W/m 22,5 km/h (4 Bft) 100,00 %
18.02.2020 19:04 7,3 C 6,7 C 6,1 C 80 % 1020,5 hPa 0,0 l/m 0 min 0 min 0 W/m 22,5 km/h (4 Bft) 100,00 %
18.02.2020 19:06 7,3 C 6,7 C 6,1 C 80 % 1020,5 hPa 0,0 l/m 0 min 0 min 0 W/m 41,8 km/h (6 Bft) 100,00 %
18.02.2020 19:08 7,4 C 6,7 C 6,1 C 80 % 1020,6 hPa 0,0 l/m 0 min 0 min 0 W/m 51,5 km/h (7 Bft) 95,65 %
18.02.2020 19:10 7,4 C 6,7 C 6,1 C 80 % 1020,5 hPa 0,0 l/m 0 min 0 min 0 W/m 25,7 km/h (4 Bft) 100,00 %
18.02.2020 19:12 7,4 C 6,7 C 6,1 C 80 % 1020,5 hPa 0,0 l/m 0 min 0 min 0 W/m 32,2 km/h (5 Bft) 97,87 %
18.02.2020 19:14 7,4 C 6,7 C 6,1 C 80 % 1020,4 hPa 0,0 l/m 0 min 0 min 0 W/m 35,4 km/h (5 Bft) 97,87 %
18.02.2020 19:16 7,4 C 6,7 C 6,1 C 80 % 1020,5 hPa 0,0 l/m 0 min 0 min 0 W/m 41,8 km/h (6 Bft) 97,87 %
18.02.2020 19:18 7,4 C 6,7 C 6,1 C 80 % 1020,5 hPa 0,0 l/m 0 min 0 min 0 W/m 29,0 km/h (5 Bft) 97,87 %
18.02.2020 19:20 7,4 C 6,7 C 6,1 C 80 % 1020,5 hPa 0,0 l/m 0 min 0 min 0 W/m 19,3 km/h (3 Bft) 95,65 %
18.02.2020 19:22 7,5 C 6,7 C 6,1 C 80 % 1020,5 hPa 0,0 l/m 0 min 0 min 0 W/m 22,5 km/h (4 Bft) 97,87 %
18.02.2020 19:24 7,5 C 6,7 C 6,1 C 80 % 1020,4 hPa 0,0 l/m 0 min 0 min 0 W/m 38,6 km/h (5 Bft) 97,87 %
18.02.2020 19:26 7,5 C 6,7 C 6,1 C 80 % 1020,5 hPa 0,0 l/m 0 min 0 min 0 W/m 25,7 km/h (4 Bft) 97,87 %
18.02.2020 19:28 7,5 C 6,7 C 6,1 C 80 % 1020,5 hPa 0,0 l/m 0 min 0 min 0 W/m 19,3 km/h (3 Bft) 95,74 %
18.02.2020 19:30 7,5 C 6,7 C 6,1 C 80 % 1020,5 hPa 0,0 l/m 0 min 0 min 0 W/m 22,5 km/h (4 Bft) 97,83 %
18.02.2020 19:32 7,5 C 6,7 C 6,1 C 80 % 1020,5 hPa 0,0 l/m 0 min 0 min 0 W/m 41,8 km/h (6 Bft) 97,87 %
18.02.2020 19:34 7,5 C 6,7 C 6,1 C 80 % 1020,5 hPa 0,0 l/m 0 min 0 min 0 W/m 38,6 km/h (5 Bft) 95,74 %
18.02.2020 19:36 7,5 C 6,7 C 6,1 C 80 % 1020,5 hPa 0,0 l/m 0 min 0 min 0 W/m 38,6 km/h (5 Bft) 95,74 %
18.02.2020 19:38 7,6 C 6,7 C 6,7 C 80 % 1020,4 hPa 0,0 l/m 0 min 0 min 0 W/m 29,0 km/h (5 Bft) 97,87 %
18.02.2020 19:40 7,6 C 6,7 C 6,7 C 80 % 1020,4 hPa 0,0 l/m 0 min 0 min 0 W/m 25,7 km/h (4 Bft) 97,87 %
18.02.2020 19:42 7,6 C 7,2 C 6,7 C 80 % 1020,4 hPa 0,0 l/m 0 min 0 min 0 W/m 45,1 km/h (6 Bft) 97,83 %
18.02.2020 19:44 7,6 C 7,2 C 6,7 C 80 % 1020,4 hPa 0,0 l/m 0 min 0 min 0 W/m 32,2 km/h (5 Bft) 97,87 %
18.02.2020 19:46 7,6 C 6,7 C 6,7 C 80 % 1020,4 hPa 0,0 l/m 0 min 0 min 0 W/m 32,2 km/h (5 Bft) 95,74 %
18.02.2020 19:48 7,6 C 6,7 C 6,1 C 80 % 1020,4 hPa 0,0 l/m 0 min 0 min 0 W/m 16,1 km/h (3 Bft) 97,87 %
18.02.2020 19:50 7,6 C 6,7 C 6,1 C 80 % 1020,3 hPa 0,0 l/m 0 min 0 min 0 W/m 35,4 km/h (5 Bft) 95,74 %
18.02.2020 19:52 7,6 C 6,7 C 6,1 C 80 % 1020,3 hPa 0,0 l/m 0 min 0 min 0 W/m 22,5 km/h (4 Bft) 97,87 %
18.02.2020 19:54 7,6 C 6,7 C 6,1 C 80 % 1020,3 hPa 0,0 l/m 0 min 0 min 0 W/m 32,2 km/h (5 Bft) 97,83 %
18.02.2020 19:56 7,6 C 6,7 C 6,1 C 80 % 1020,2 hPa 0,0 l/m 0 min 0 min 0 W/m 29,0 km/h (5 Bft) 97,87 %
18.02.2020 19:58 7,6 C 6,7 C 6,1 C 80 % 1020,3 hPa 0,0 l/m 0 min 0 min 0 W/m 32,2 km/h (5 Bft) 97,87 %
18.02.2020 20:00 7,6 C 6,7 C 6,1 C 80 % 1020,1 hPa 0,0 l/m 0 min 0 min 0 W/m 41,8 km/h (6 Bft) 100,00 %
18.02.2020 20:02 7,6 C 6,7 C 6,1 C 80 % 1020,1 hPa 0,0 l/m 0 min 0 min 0 W/m 35,4 km/h (5 Bft) 100,00 %
18.02.2020 20:04 7,6 C 6,7 C 6,1 C 80 % 1020,1 hPa 0,0 l/m 0 min 0 min 0 W/m 29,0 km/h (5 Bft) 97,87 %
18.02.2020 20:06 7,6 C 6,7 C 6,1 C 80 % 1020,1 hPa 0,0 l/m 0 min 0 min 0 W/m 22,5 km/h (4 Bft) 100,00 %
18.02.2020 20:08 7,6 C 6,7 C 6,1 C 80 % 1020,0 hPa 0,0 l/m 0 min 0 min 0 W/m 29,0 km/h (5 Bft) 100,00 %
18.02.2020 20:10 7,6 C 6,7 C 6,1 C 80 % 1020,0 hPa 0,0 l/m 0 min 0 min 0 W/m 19,3 km/h (3 Bft) 100,00 %
18.02.2020 20:12 7,5 C 6,7 C 6,1 C 80 % 1019,9 hPa 0,0 l/m 0 min 0 min 0 W/m 48,3 km/h (6 Bft) 100,00 %
18.02.2020 20:14 7,5 C 6,7 C 6,1 C 80 % 1019,8 hPa 0,0 l/m 0 min 0 min 0 W/m 38,6 km/h (5 Bft) 97,87 %
18.02.2020 20:16 7,5 C 6,7 C 6,1 C 80 % 1019,9 hPa 0,0 l/m 0 min 0 min 0 W/m 38,6 km/h (5 Bft) 100,00 %
18.02.2020 20:18 7,5 C 6,7 C 6,1 C 80 % 1019,9 hPa 0,0 l/m 0 min 0 min 0 W/m 19,3 km/h (3 Bft) 100,00 %
18.02.2020 20:20 7,5 C 6,7 C 6,1 C 80 % 1019,8 hPa 0,0 l/m 0 min 0 min 0 W/m 22,5 km/h (4 Bft) 100,00 %
18.02.2020 20:22 7,5 C 6,7 C 6,1 C 80 % 1019,7 hPa 0,0 l/m 0 min 0 min 0 W/m 19,3 km/h (3 Bft) 100,00 %
18.02.2020 20:24 7,4 C 6,7 C 6,1 C 80 % 1019,7 hPa 0,0 l/m 0 min 0 min 0 W/m 35,4 km/h (5 Bft) 100,00 %
18.02.2020 20:26 7,4 C 6,7 C 6,1 C 79 % 1019,7 hPa 0,0 l/m 0 min 0 min 0 W/m 38,6 km/h (5 Bft) 97,87 %
18.02.2020 20:28 7,4 C 6,7 C 6,1 C 79 % 1019,6 hPa 0,0 l/m 0 min 0 min 0 W/m 29,0 km/h (5 Bft) 95,74 %
18.02.2020 20:30 7,4 C 6,7 C 6,1 C 79 % 1019,7 hPa 0,0 l/m 0 min 0 min 0 W/m 32,2 km/h (5 Bft) 95,65 %
18.02.2020 20:32 7,4 C 6,7 C 6,1 C 79 % 1019,6 hPa 0,0 l/m 0 min 0 min 0 W/m 38,6 km/h (5 Bft) 93,62 %
18.02.2020 20:34 7,4 C 6,7 C 6,1 C 79 % 1019,6 hPa 0,0 l/m 0 min 0 min 0 W/m 25,7 km/h (4 Bft) 97,87 %
18.02.2020 20:36 7,4 C 6,7 C 6,1 C 79 % 1019,6 hPa 0,0 l/m 0 min 0 min 0 W/m 29,0 km/h (5 Bft) 93,62 %
18.02.2020 20:38 7,4 C 6,7 C 6,1 C 79 % 1019,6 hPa 0,0 l/m 0 min 0 min 0 W/m 22,5 km/h (4 Bft) 95,74 %
18.02.2020 20:40 7,4 C 6,7 C 6,1 C 79 % 1019,5 hPa 0,0 l/m 0 min 0 min 0 W/m 22,5 km/h (4 Bft) 97,87 %
18.02.2020 20:42 7,4 C 6,7 C 6,1 C 79 % 1019,4 hPa 0,0 l/m 0 min 0 min 0 W/m 45,1 km/h (6 Bft) 97,83 %
18.02.2020 20:44 7,4 C 6,7 C 6,1 C 79 % 1019,4 hPa 0,0 l/m 0 min 0 min 0 W/m 38,6 km/h (5 Bft) 95,74 %
18.02.2020 20:46 7,4 C 6,7 C 6,1 C 79 % 1019,4 hPa 0,0 l/m 0 min 0 min 0 W/m 29,0 km/h (5 Bft) 95,74 %
18.02.2020 20:48 7,4 C 6,7 C 6,1 C 79 % 1019,3 hPa 0,0 l/m 0 min 0 min 0 W/m 25,7 km/h (4 Bft) 95,74 %
18.02.2020 20:50 7,4 C 6,7 C 6,1 C 79 % 1019,4 hPa 0,0 l/m 0 min 0 min 0 W/m 35,4 km/h (5 Bft) 95,74 %
18.02.2020 20:52 7,4 C 6,7 C 6,1 C 79 % 1019,3 hPa 0,0 l/m 0 min 0 min 0 W/m 32,2 km/h (5 Bft) 93,48 %
18.02.2020 20:54 7,4 C 6,7 C 6,1 C 79 % 1019,2 hPa 0,0 l/m 0 min 0 min 0 W/m 19,3 km/h (3 Bft) 91,49 %
18.02.2020 20:56 7,4 C 6,7 C 6,1 C 79 % 1019,3 hPa 0,0 l/m 0 min 0 min 0 W/m 22,5 km/h (4 Bft) 95,74 %
18.02.2020 20:58 7,3 C 6,7 C 6,1 C 79 % 1019,2 hPa 0,0 l/m 0 min 0 min 0 W/m 25,7 km/h (4 Bft) 93,62 %
18.02.2020 21:00 7,4 C 6,7 C 6,1 C 79 % 1019,2 hPa 0,0 l/m 0 min 0 min 0 W/m 29,0 km/h (5 Bft) 95,74 %
18.02.2020 21:02 7,3 C 6,7 C 6,1 C 79 % 1019,2 hPa 0,0 l/m 0 min 0 min 0 W/m 29,0 km/h (5 Bft) 95,74 %
18.02.2020 21:04 7,3 C 6,7 C 6,1 C 79 % 1019,2 hPa 0,0 l/m 0 min 0 min 0 W/m 35,4 km/h (5 Bft) 95,65 %
18.02.2020 21:06 7,4 C 6,7 C 6,1 C 79 % 1019,2 hPa 0,0 l/m 0 min 0 min 0 W/m 29,0 km/h (5 Bft) 95,74 %
18.02.2020 21:08 7,4 C 6,7 C 6,1 C 79 % 1019,2 hPa 0,0 l/m 0 min 0 min 0 W/m 32,2 km/h (5 Bft) 95,74 %
18.02.2020 21:10 7,4 C 6,7 C 6,1 C 80 % 1019,3 hPa 0,0 l/m 0 min 0 min 0 W/m 35,4 km/h (5 Bft) 93,62 %
18.02.2020 21:12 7,4 C 6,7 C 6,1 C 80 % 1019,2 hPa 0,0 l/m 0 min 0 min 0 W/m 32,2 km/h (5 Bft) 95,74 %
18.02.2020 21:14 7,4 C 6,7 C 6,1 C 80 % 1019,2 hPa 0,0 l/m 0 min 0 min 0 W/m 29,0 km/h (5 Bft) 95,74 %
18.02.2020 21:16 7,4 C 6,7 C 6,1 C 80 % 1019,2 hPa 0,0 l/m 0 min 0 min 0 W/m 25,7 km/h (4 Bft) 95,65 %
18.02.2020 21:18 7,3 C 6,7 C 6,1 C 80 % 1019,2 hPa 0,0 l/m 0 min 0 min 0 W/m 25,7 km/h (4 Bft) 97,87 %
18.02.2020 21:20 7,3 C 6,7 C 6,1 C 80 % 1019,1 hPa 0,0 l/m 0 min 0 min 0 W/m 29,0 km/h (5 Bft) 95,74 %
18.02.2020 21:22 7,4 C 6,7 C 6,1 C 80 % 1019,1 hPa 0,0 l/m 0 min 0 min 0 W/m 25,7 km/h (4 Bft) 97,87 %
18.02.2020 21:24 7,4 C 6,7 C 6,1 C 80 % 1019,0 hPa 0,0 l/m 0 min 0 min 0 W/m 25,7 km/h (4 Bft) 95,74 %
18.02.2020 21:26 7,4 C 6,7 C 6,1 C 80 % 1019,0 hPa 0,0 l/m 0 min 0 min 0 W/m 35,4 km/h (5 Bft) 93,62 %
18.02.2020 21:28 7,4 C 6,7 C 6,1 C 80 % 1018,9 hPa 0,0 l/m 0 min 0 min 0 W/m 35,4 km/h (5 Bft) 97,83 %
18.02.2020 21:30 7,4 C 6,7 C 6,1 C 80 % 1019,0 hPa 0,0 l/m 0 min 0 min 0 W/m 25,7 km/h (4 Bft) 97,87 %
18.02.2020 21:32 7,4 C 6,7 C 6,1 C 80 % 1018,9 hPa 0,0 l/m 0 min 0 min 0 W/m 41,8 km/h (6 Bft) 97,87 %
18.02.2020 21:34 7,4 C 6,7 C 6,1 C 80 % 1018,9 hPa 0,0 l/m 0 min 0 min 0 W/m 29,0 km/h (5 Bft) 95,74 %
18.02.2020 21:36 7,4 C 6,7 C 6,1 C 80 % 1018,9 hPa 0,0 l/m 0 min 0 min 0 W/m 19,3 km/h (3 Bft) 97,87 %
18.02.2020 21:38 7,4 C 6,7 C 6,1 C 80 % 1018,9 hPa 0,0 l/m 0 min 0 min 0 W/m 29,0 km/h (5 Bft) 97,87 %
18.02.2020 21:40 7,4 C 6,7 C 6,1 C 80 % 1018,8 hPa 0,0 l/m 0 min 0 min 0 W/m 29,0 km/h (5 Bft) 97,83 %
18.02.2020 21:42 7,4 C 6,7 C 6,1 C 80 % 1018,8 hPa 0,0 l/m 0 min 0 min 0 W/m 19,3 km/h (3 Bft) 97,87 %
18.02.2020 21:44 7,4 C 6,7 C 6,1 C 80 % 1018,8 hPa 0,0 l/m 0 min 0 min 0 W/m 32,2 km/h (5 Bft) 95,74 %
18.02.2020 21:46 7,4 C 6,7 C 6,1 C 80 % 1018,8 hPa 0,0 l/m 0 min 0 min 0 W/m 32,2 km/h (5 Bft) 95,74 %
18.02.2020 21:48 7,4 C 6,7 C 6,1 C 80 % 1018,7 hPa 0,0 l/m 0 min 0 min 0 W/m 35,4 km/h (5 Bft) 97,87 %
18.02.2020 21:50 7,4 C 6,7 C 6,1 C 80 % 1018,6 hPa 0,0 l/m 0 min 0 min 0 W/m 32,2 km/h (5 Bft) 97,87 %
18.02.2020 21:52 7,4 C 6,7 C 6,1 C 80 % 1018,6 hPa 0,0 l/m 0 min 0 min 0 W/m 25,7 km/h (4 Bft) 97,83 %
18.02.2020 21:54 7,4 C 6,7 C 6,1 C 80 % 1018,6 hPa 0,0 l/m 0 min 0 min 0 W/m 51,5 km/h (7 Bft) 97,87 %
18.02.2020 21:56 7,5 C 6,7 C 6,1 C 80 % 1018,5 hPa 0,0 l/m 0 min 0 min 0 W/m 38,6 km/h (5 Bft) 93,62 %
18.02.2020 21:58 7,5 C 6,7 C 6,1 C 80 % 1018,5 hPa 0,0 l/m 0 min 0 min 0 W/m 48,3 km/h (6 Bft) 97,87 %
18.02.2020 22:00 7,5 C 6,7 C 6,1 C 80 % 1018,5 hPa 0,0 l/m 0 min 0 min 0 W/m 29,0 km/h (5 Bft) 97,87 %
18.02.2020 22:02 7,5 C 6,7 C 6,1 C 80 % 1018,5 hPa 0,0 l/m 0 min 0 min 0 W/m 51,5 km/h (7 Bft) 97,83 %
18.02.2020 22:04 7,5 C 6,7 C 6,1 C 80 % 1018,4 hPa 0,0 l/m 0 min 0 min 0 W/m 48,3 km/h (6 Bft) 95,74 %
18.02.2020 22:06 7,5 C 6,7 C 6,1 C 80 % 1018,4 hPa 0,0 l/m 0 min 0 min 0 W/m 32,2 km/h (5 Bft) 93,62 %
18.02.2020 22:08 7,5 C 6,7 C 6,1 C 80 % 1018,4 hPa 0,0 l/m 0 min 0 min 0 W/m 32,2 km/h (5 Bft) 97,87 %
18.02.2020 22:10 7,5 C 6,7 C 6,1 C 80 % 1018,3 hPa 0,0 l/m 0 min 0 min 0 W/m 41,8 km/h (6 Bft) 97,87 %
18.02.2020 22:12 7,5 C 6,7 C 6,1 C 80 % 1018,3 hPa 0,0 l/m 0 min 0 min 0 W/m 32,2 km/h (5 Bft) 97,87 %
18.02.2020 22:14 7,5 C 6,7 C 6,1 C 80 % 1018,3 hPa 0,0 l/m 0 min 0 min 0 W/m 35,4 km/h (5 Bft) 97,83 %
18.02.2020 22:16 7,6 C 6,7 C 6,1 C 80 % 1018,3 hPa 0,0 l/m 0 min 0 min 0 W/m 29,0 km/h (5 Bft) 93,62 %
18.02.2020 22:18 7,6 C 6,7 C 6,1 C 80 % 1018,3 hPa 0,0 l/m 0 min 0 min 0 W/m 45,1 km/h (6 Bft) 97,87 %
18.02.2020 22:20 7,6 C 6,7 C 6,7 C 80 % 1018,3 hPa 0,0 l/m 0 min 0 min 0 W/m 35,4 km/h (5 Bft) 97,87 %
18.02.2020 22:22 7,6 C 6,7 C 6,7 C 80 % 1018,2 hPa 0,0 l/m 0 min 0 min 0 W/m 41,8 km/h (6 Bft) 97,87 %
18.02.2020 22:24 7,6 C 6,7 C 6,1 C 80 % 1018,2 hPa 0,0 l/m 0 min 0 min 0 W/m 32,2 km/h (5 Bft) 97,87 %
18.02.2020 22:26 7,6 C 6,7 C 6,1 C 80 % 1018,2 hPa 0,0 l/m 0 min 0 min 0 W/m 29,0 km/h (5 Bft) 97,83 %
18.02.2020 22:28 7,6 C 6,7 C 6,1 C 80 % 1018,2 hPa 0,0 l/m 0 min 0 min 0 W/m 29,0 km/h (5 Bft) 97,87 %
18.02.2020 22:30 7,6 C 6,7 C 6,1 C 80 % 1018,1 hPa 0,0 l/m 0 min 0 min 0 W/m 29,0 km/h (5 Bft) 100,00 %
18.02.2020 22:32 7,6 C 6,7 C 6,7 C 80 % 1018,1 hPa 0,0 l/m 0 min 0 min 0 W/m 32,2 km/h (5 Bft) 100,00 %
18.02.2020 22:34 7,6 C 6,7 C 6,7 C 80 % 1018,0 hPa 0,0 l/m 0 min 0 min 0 W/m 19,3 km/h (3 Bft) 100,00 %
18.02.2020 22:36 7,6 C 7,2 C 6,7 C 80 % 1018,0 hPa 0,0 l/m 0 min 0 min 0 W/m 45,1 km/h (6 Bft) 100,00 %
18.02.2020 22:38 7,6 C 7,2 C 6,7 C 80 % 1018,1 hPa 0,0 l/m 0 min 0 min 0 W/m 38,6 km/h (5 Bft) 100,00 %
18.02.2020 22:40 7,6 C 7,2 C 6,7 C 79 % 1017,9 hPa 0,0 l/m 0 min 0 min 0 W/m 38,6 km/h (5 Bft) 100,00 %
18.02.2020 22:42 7,6 C 7,2 C 6,7 C 79 % 1017,9 hPa 0,0 l/m 0 min 0 min 0 W/m 29,0 km/h (5 Bft) 100,00 %
18.02.2020 22:44 7,6 C 6,7 C 6,7 C 80 % 1017,9 hPa 0,0 l/m 0 min 0 min 0 W/m 38,6 km/h (5 Bft) 100,00 %
18.02.2020 22:46 7,6 C 6,7 C 6,1 C 80 % 1018,0 hPa 0,0 l/m 0 min 0 min 0 W/m 25,7 km/h (4 Bft) 97,87 %
18.02.2020 22:48 7,6 C 7,2 C 6,7 C 80 % 1017,8 hPa 0,0 l/m 0 min 0 min 0 W/m 48,3 km/h (6 Bft) 97,87 %
18.02.2020 22:50 7,7 C 6,7 C 6,7 C 80 % 1017,9 hPa 0,0 l/m 0 min 0 min 0 W/m 32,2 km/h (5 Bft) 100,00 %
18.02.2020 22:52 7,6 C 6,7 C 6,1 C 80 % 1017,7 hPa 0,0 l/m 0 min 2 min 0 W/m 32,2 km/h (5 Bft) 100,00 %
18.02.2020 22:54 7,7 C 6,7 C 6,1 C 80 % 1017,7 hPa 0,0 l/m 0 min 2 min 0 W/m 25,7 km/h (4 Bft) 100,00 %
18.02.2020 22:56 7,7 C 6,1 C 5,6 C 80 % 1017,7 hPa 0,0 l/m 0 min 2 min 0 W/m 35,4 km/h (5 Bft) 100,00 %
18.02.2020 22:58 7,6 C 5,6 C 5,6 C 81 % 1017,7 hPa 0,0 l/m 0 min 2 min 0 W/m 35,4 km/h (5 Bft) 100,00 %
18.02.2020 23:00 7,6 C 5,6 C 5,0 C 82 % 1017,8 hPa 0,0 l/m 0 min 2 min 0 W/m 35,4 km/h (5 Bft) 100,00 %
18.02.2020 23:02 7,6 C 5,6 C 5,0 C 82 % 1017,6 hPa 0,0 l/m 0 min 2 min 0 W/m 38,6 km/h (5 Bft) 100,00 %
18.02.2020 23:04 7,5 C 5,6 C 5,0 C 83 % 1017,5 hPa 0,0 l/m 0 min 2 min 0 W/m 45,1 km/h (6 Bft) 100,00 %
18.02.2020 23:06 7,4 C 5,6 C 4,4 C 83 % 1017,5 hPa 0,0 l/m 0 min 2 min 0 W/m 29,0 km/h (5 Bft) 100,00 %
18.02.2020 23:08 7,4 C 5,6 C 4,4 C 83 % 1017,3 hPa 0,0 l/m 0 min 2 min 0 W/m 32,2 km/h (5 Bft) 100,00 %
18.02.2020 23:10 7,3 C 5,6 C 4,4 C 84 % 1017,3 hPa 0,0 l/m 0 min 2 min 0 W/m 35,4 km/h (5 Bft) 97,87 %
18.02.2020 23:12 7,3 C 5,6 C 5,0 C 84 % 1017,2 hPa 0,0 l/m 0 min 2 min 0 W/m 25,7 km/h (4 Bft) 95,65 %
18.02.2020 23:14 7,3 C 5,6 C 5,0 C 84 % 1017,2 hPa 0,0 l/m 0 min 2 min 0 W/m 16,1 km/h (3 Bft) 100,00 %
18.02.2020 23:16 7,3 C 5,6 C 5,0 C 84 % 1017,2 hPa 0,0 l/m 0 min 2 min 0 W/m 25,7 km/h (4 Bft) 97,87 %
18.02.2020 23:18 7,2 C 5,6 C 5,0 C 85 % 1017,1 hPa 0,0 l/m 0 min 2 min 0 W/m 29,0 km/h (5 Bft) 95,74 %
18.02.2020 23:20 7,2 C 5,6 C 5,0 C 85 % 1017,1 hPa 0,0 l/m 0 min 2 min 0 W/m 22,5 km/h (4 Bft) 97,87 %
18.02.2020 23:22 7,2 C 5,6 C 5,0 C 85 % 1017,0 hPa 0,0 l/m 0 min 2 min 0 W/m 45,1 km/h (6 Bft) 97,87 %
18.02.2020 23:24 7,2 C 5,6 C 5,0 C 85 % 1017,0 hPa 0,0 l/m 0 min 2 min 0 W/m 32,2 km/h (5 Bft) 97,83 %
18.02.2020 23:26 7,1 C 6,1 C 5,0 C 85 % 1016,9 hPa 0,0 l/m 0 min 2 min 0 W/m 19,3 km/h (3 Bft) 97,87 %
18.02.2020 23:28 7,1 C 6,1 C 5,0 C 85 % 1016,8 hPa 0,0 l/m 0 min 2 min 0 W/m 48,3 km/h (6 Bft) 95,74 %
18.02.2020 23:30 7,1 C 6,1 C 5,0 C 85 % 1016,7 hPa 0,0 l/m 0 min 2 min 0 W/m 35,4 km/h (5 Bft) 97,87 %
18.02.2020 23:32 7,1 C 6,1 C 5,0 C 85 % 1016,7 hPa 0,0 l/m 0 min 2 min 0 W/m 29,0 km/h (5 Bft) 97,87 %
18.02.2020 23:34 7,1 C 6,1 C 5,0 C 85 % 1016,7 hPa 0,0 l/m 0 min 2 min 0 W/m 35,4 km/h (5 Bft) 97,87 %
18.02.2020 23:36 7,1 C 6,1 C 5,6 C 85 % 1016,7 hPa 0,0 l/m 0 min 2 min 0 W/m 29,0 km/h (5 Bft) 97,83 %
18.02.2020 23:38 7,1 C 6,1 C 5,6 C 85 % 1016,5 hPa 0,0 l/m 0 min 2 min 0 W/m 38,6 km/h (5 Bft) 97,87 %
18.02.2020 23:40 7,1 C 6,1 C 5,6 C 85 % 1016,4 hPa 0,0 l/m 0 min 2 min 0 W/m 25,7 km/h (4 Bft) 97,87 %
18.02.2020 23:42 7,1 C 6,1 C 5,6 C 85 % 1016,4 hPa 0,0 l/m 0 min 2 min 0 W/m 29,0 km/h (5 Bft) 97,87 %
18.02.2020 23:44 7,1 C 6,1 C 5,6 C 85 % 1016,4 hPa 0,0 l/m 0 min 2 min 0 W/m 22,5 km/h (4 Bft) 97,87 %
18.02.2020 23:46 7,1 C 6,1 C 5,6 C 84 % 1016,3 hPa 0,0 l/m 0 min 2 min 0 W/m 22,5 km/h (4 Bft) 95,74 %
18.02.2020 23:48 7,1 C 6,1 C 5,6 C 84 % 1016,2 hPa 0,0 l/m 0 min 2 min 0 W/m 22,5 km/h (4 Bft) 97,83 %
18.02.2020 23:50 7,1 C 6,1 C 5,6 C 84 % 1016,1 hPa 0,0 l/m 0 min 2 min 0 W/m 22,5 km/h (4 Bft) 97,87 %
18.02.2020 23:52 7,1 C 6,1 C 5,6 C 84 % 1016,2 hPa 0,0 l/m 0 min 2 min 0 W/m 35,4 km/h (5 Bft) 97,87 %
18.02.2020 23:54 7,2 C 6,7 C 5,6 C 84 % 1016,0 hPa 0,0 l/m 0 min 2 min 0 W/m 22,5 km/h (4 Bft) 97,87 %
18.02.2020 23:56 7,2 C 6,7 C 5,6 C 84 % 1015,9 hPa 0,0 l/m 0 min 2 min 0 W/m 19,3 km/h (3 Bft) 95,74 %
18.02.2020 23:58 7,2 C 6,7 C 5,6 C 84 % 1016,1 hPa 0,0 l/m 0 min 0 min 0 W/m 22,5 km/h (4 Bft) 97,83 %
_ Min-Zeit 07:50 07:02 07:02 16:18 23:56 - - - - 15:06 02:08
Minimum _ 5,7 C 5,0 C 4,4 C 76 % 1015,9 hPa - - - - 6,4 km/h (2 Bft) 50,00 %
_ Max-Zeit 16:08 12:54 12:54 00:28 10:48 00:00 08:56 01:54 11:46 15:00 00:28
Maximum _ 8,9 C 11,7 C 11,1 C 87 % 1023,3 hPa 0,0 l/m 2 min 2 min 558 W/m 57,9 km/h
SO (7 Bft)
100,00 %
Durchschnitt _ 7,4 C 6,9 C 6,3 C 82 % 1020,5 hPa #0,0 l/m #1:58 h #2:18 h 122 W/m 25,4 km/h (4 Bft) 97,35 %
© 2020 W. Hausmann